<?xml version="1.0"?>
<gpx xmlns="http://www.topografix.com/GPX/1/1" xmlns:xsi="http://www.w3.org/2001/XMLSchema-instance" version="1.1" creator="GPX RubyGem 1.0.0 -- http://dougfales.github.io/gpx/" xsi:schemaLocation="http://www.topografix.com/GPX/1/1 http://www.topografix.com/GPX/1/1/gpx.xsd">
  <metadata>
    <name/>
    <time>2026-05-07T19:54:02+00:00</time>
    <bound minlat="90.0" minlon="180.0" maxlat="-90.0" maxlon="-180.0"/>
  </metadata>
  <trk>
    <name/>
    <trkseg>
      <trkpt lat="46.306622" lon="9.923975">
        <time>1970-01-01T00:00:00+00:00</time>
        <ele>1936.0</ele>
      </trkpt>
      <trkpt lat="46.306613" lon="9.923752">
        <time>1970-01-01T00:00:00+00:00</time>
        <ele>1934.0</ele>
      </trkpt>
      <trkpt lat="46.306686" lon="9.923852">
        <time>1970-01-01T00:00:00+00:00</time>
        <ele>1935.0</ele>
      </trkpt>
      <trkpt lat="46.306778" lon="9.924208">
        <time>1970-01-01T00:00:00+00:00</time>
        <ele>1938.0</ele>
      </trkpt>
      <trkpt lat="46.306831" lon="9.92462">
        <time>1970-01-01T00:00:00+00:00</time>
        <ele>1940.0</ele>
      </trkpt>
      <trkpt lat="46.306889" lon="9.924777">
        <time>1970-01-01T00:00:00+00:00</time>
        <ele>1941.0</ele>
      </trkpt>
      <trkpt lat="46.306948" lon="9.924664">
        <time>1970-01-01T00:00:00+00:00</time>
        <ele>1943.0</ele>
      </trkpt>
      <trkpt lat="46.307034" lon="9.924282">
        <time>1970-01-01T00:00:00+00:00</time>
        <ele>1946.0</ele>
      </trkpt>
      <trkpt lat="46.307042" lon="9.923991">
        <time>1970-01-01T00:00:00+00:00</time>
        <ele>1946.0</ele>
      </trkpt>
      <trkpt lat="46.30711" lon="9.923567">
        <time>1970-01-01T00:00:00+00:00</time>
        <ele>1953.0</ele>
      </trkpt>
      <trkpt lat="46.307125" lon="9.92329">
        <time>1970-01-01T00:00:00+00:00</time>
        <ele>1958.0</ele>
      </trkpt>
      <trkpt lat="46.307097" lon="9.922827">
        <time>1970-01-01T00:00:00+00:00</time>
        <ele>1969.0</ele>
      </trkpt>
      <trkpt lat="46.30705" lon="9.922694">
        <time>1970-01-01T00:00:00+00:00</time>
        <ele>1966.0</ele>
      </trkpt>
      <trkpt lat="46.306921" lon="9.922524">
        <time>1970-01-01T00:00:00+00:00</time>
        <ele>1959.0</ele>
      </trkpt>
      <trkpt lat="46.306783" lon="9.922072">
        <time>1970-01-01T00:00:00+00:00</time>
        <ele>1961.0</ele>
      </trkpt>
      <trkpt lat="46.306798" lon="9.921342">
        <time>1970-01-01T00:00:00+00:00</time>
        <ele>1994.0</ele>
      </trkpt>
      <trkpt lat="46.306716" lon="9.920623">
        <time>1970-01-01T00:00:00+00:00</time>
        <ele>2017.0</ele>
      </trkpt>
      <trkpt lat="46.306382" lon="9.919263">
        <time>1970-01-01T00:00:00+00:00</time>
        <ele>2043.0</ele>
      </trkpt>
      <trkpt lat="46.306121" lon="9.917872">
        <time>1970-01-01T00:00:00+00:00</time>
        <ele>2097.0</ele>
      </trkpt>
      <trkpt lat="46.305945" lon="9.917283">
        <time>1970-01-01T00:00:00+00:00</time>
        <ele>2109.0</ele>
      </trkpt>
      <trkpt lat="46.305687" lon="9.916846">
        <time>1970-01-01T00:00:00+00:00</time>
        <ele>2097.0</ele>
      </trkpt>
      <trkpt lat="46.305478" lon="9.916143">
        <time>1970-01-01T00:00:00+00:00</time>
        <ele>2115.0</ele>
      </trkpt>
      <trkpt lat="46.305653" lon="9.915621">
        <time>1970-01-01T00:00:00+00:00</time>
        <ele>2138.0</ele>
      </trkpt>
      <trkpt lat="46.30636" lon="9.914885">
        <time>1970-01-01T00:00:00+00:00</time>
        <ele>2153.0</ele>
      </trkpt>
      <trkpt lat="46.306736" lon="9.914799">
        <time>1970-01-01T00:00:00+00:00</time>
        <ele>2166.0</ele>
      </trkpt>
      <trkpt lat="46.307198" lon="9.913998">
        <time>1970-01-01T00:00:00+00:00</time>
        <ele>2163.0</ele>
      </trkpt>
      <trkpt lat="46.307375" lon="9.913897">
        <time>1970-01-01T00:00:00+00:00</time>
        <ele>2167.0</ele>
      </trkpt>
      <trkpt lat="46.308095" lon="9.913035">
        <time>1970-01-01T00:00:00+00:00</time>
        <ele>2167.0</ele>
      </trkpt>
      <trkpt lat="46.308884" lon="9.912405">
        <time>1970-01-01T00:00:00+00:00</time>
        <ele>2174.0</ele>
      </trkpt>
      <trkpt lat="46.309453" lon="9.911814">
        <time>1970-01-01T00:00:00+00:00</time>
        <ele>2181.0</ele>
      </trkpt>
      <trkpt lat="46.309716" lon="9.91162">
        <time>1970-01-01T00:00:00+00:00</time>
        <ele>2180.0</ele>
      </trkpt>
      <trkpt lat="46.310268" lon="9.911703">
        <time>1970-01-01T00:00:00+00:00</time>
        <ele>2183.0</ele>
      </trkpt>
      <trkpt lat="46.31045" lon="9.911778">
        <time>1970-01-01T00:00:00+00:00</time>
        <ele>2185.0</ele>
      </trkpt>
      <trkpt lat="46.31068" lon="9.911775">
        <time>1970-01-01T00:00:00+00:00</time>
        <ele>2187.0</ele>
      </trkpt>
      <trkpt lat="46.311198" lon="9.91155">
        <time>1970-01-01T00:00:00+00:00</time>
        <ele>2188.0</ele>
      </trkpt>
      <trkpt lat="46.311912" lon="9.911449">
        <time>1970-01-01T00:00:00+00:00</time>
        <ele>2197.0</ele>
      </trkpt>
      <trkpt lat="46.312669" lon="9.911115">
        <time>1970-01-01T00:00:00+00:00</time>
        <ele>2198.0</ele>
      </trkpt>
      <trkpt lat="46.313228" lon="9.910679">
        <time>1970-01-01T00:00:00+00:00</time>
        <ele>2193.0</ele>
      </trkpt>
      <trkpt lat="46.313711" lon="9.9104">
        <time>1970-01-01T00:00:00+00:00</time>
        <ele>2191.0</ele>
      </trkpt>
      <trkpt lat="46.314361" lon="9.910337">
        <time>1970-01-01T00:00:00+00:00</time>
        <ele>2192.0</ele>
      </trkpt>
      <trkpt lat="46.314903" lon="9.91019">
        <time>1970-01-01T00:00:00+00:00</time>
        <ele>2188.0</ele>
      </trkpt>
      <trkpt lat="46.315428" lon="9.909979">
        <time>1970-01-01T00:00:00+00:00</time>
        <ele>2182.0</ele>
      </trkpt>
      <trkpt lat="46.315683" lon="9.909999">
        <time>1970-01-01T00:00:00+00:00</time>
        <ele>2184.0</ele>
      </trkpt>
      <trkpt lat="46.315901" lon="9.909933">
        <time>1970-01-01T00:00:00+00:00</time>
        <ele>2184.0</ele>
      </trkpt>
      <trkpt lat="46.316495" lon="9.909556">
        <time>1970-01-01T00:00:00+00:00</time>
        <ele>2188.0</ele>
      </trkpt>
      <trkpt lat="46.317575" lon="9.909047">
        <time>1970-01-01T00:00:00+00:00</time>
        <ele>2193.0</ele>
      </trkpt>
      <trkpt lat="46.318017" lon="9.908596">
        <time>1970-01-01T00:00:00+00:00</time>
        <ele>2198.0</ele>
      </trkpt>
      <trkpt lat="46.318445" lon="9.908362">
        <time>1970-01-01T00:00:00+00:00</time>
        <ele>2205.0</ele>
      </trkpt>
      <trkpt lat="46.318552" lon="9.908348">
        <time>1970-01-01T00:00:00+00:00</time>
        <ele>2208.0</ele>
      </trkpt>
      <trkpt lat="46.318631" lon="9.908277">
        <time>1970-01-01T00:00:00+00:00</time>
        <ele>2209.0</ele>
      </trkpt>
      <trkpt lat="46.318691" lon="9.908248">
        <time>1970-01-01T00:00:00+00:00</time>
        <ele>2210.0</ele>
      </trkpt>
      <trkpt lat="46.318824" lon="9.908242">
        <time>1970-01-01T00:00:00+00:00</time>
        <ele>2213.0</ele>
      </trkpt>
      <trkpt lat="46.318875" lon="9.908193">
        <time>1970-01-01T00:00:00+00:00</time>
        <ele>2213.0</ele>
      </trkpt>
      <trkpt lat="46.319428" lon="9.907841">
        <time>1970-01-01T00:00:00+00:00</time>
        <ele>2218.0</ele>
      </trkpt>
      <trkpt lat="46.319582" lon="9.907604">
        <time>1970-01-01T00:00:00+00:00</time>
        <ele>2221.0</ele>
      </trkpt>
      <trkpt lat="46.319717" lon="9.90797">
        <time>1970-01-01T00:00:00+00:00</time>
        <ele>2227.0</ele>
      </trkpt>
      <trkpt lat="46.319733" lon="9.907966">
        <time>1970-01-01T00:00:00+00:00</time>
        <ele>2228.0</ele>
      </trkpt>
      <trkpt lat="46.319835" lon="9.90752">
        <time>1970-01-01T00:00:00+00:00</time>
        <ele>2232.0</ele>
      </trkpt>
      <trkpt lat="46.319835" lon="9.90733">
        <time>1970-01-01T00:00:00+00:00</time>
        <ele>2234.0</ele>
      </trkpt>
      <trkpt lat="46.319809" lon="9.907169">
        <time>1970-01-01T00:00:00+00:00</time>
        <ele>2234.0</ele>
      </trkpt>
      <trkpt lat="46.31977" lon="9.907047">
        <time>1970-01-01T00:00:00+00:00</time>
        <ele>2234.0</ele>
      </trkpt>
      <trkpt lat="46.31963" lon="9.906723">
        <time>1970-01-01T00:00:00+00:00</time>
        <ele>2234.0</ele>
      </trkpt>
      <trkpt lat="46.319559" lon="9.906533">
        <time>1970-01-01T00:00:00+00:00</time>
        <ele>2234.0</ele>
      </trkpt>
      <trkpt lat="46.319553" lon="9.906316">
        <time>1970-01-01T00:00:00+00:00</time>
        <ele>2236.0</ele>
      </trkpt>
      <trkpt lat="46.319582" lon="9.906272">
        <time>1970-01-01T00:00:00+00:00</time>
        <ele>2237.0</ele>
      </trkpt>
      <trkpt lat="46.319613" lon="9.906269">
        <time>1970-01-01T00:00:00+00:00</time>
        <ele>2238.0</ele>
      </trkpt>
      <trkpt lat="46.319708" lon="9.90639">
        <time>1970-01-01T00:00:00+00:00</time>
        <ele>2244.0</ele>
      </trkpt>
      <trkpt lat="46.319869" lon="9.906456">
        <time>1970-01-01T00:00:00+00:00</time>
        <ele>2249.0</ele>
      </trkpt>
      <trkpt lat="46.320121" lon="9.906489">
        <time>1970-01-01T00:00:00+00:00</time>
        <ele>2254.0</ele>
      </trkpt>
      <trkpt lat="46.320143" lon="9.906536">
        <time>1970-01-01T00:00:00+00:00</time>
        <ele>2255.0</ele>
      </trkpt>
      <trkpt lat="46.320162" lon="9.906755">
        <time>1970-01-01T00:00:00+00:00</time>
        <ele>2254.0</ele>
      </trkpt>
      <trkpt lat="46.320218" lon="9.907012">
        <time>1970-01-01T00:00:00+00:00</time>
        <ele>2256.0</ele>
      </trkpt>
      <trkpt lat="46.320258" lon="9.907089">
        <time>1970-01-01T00:00:00+00:00</time>
        <ele>2258.0</ele>
      </trkpt>
      <trkpt lat="46.320352" lon="9.907181">
        <time>1970-01-01T00:00:00+00:00</time>
        <ele>2264.0</ele>
      </trkpt>
      <trkpt lat="46.320524" lon="9.907198">
        <time>1970-01-01T00:00:00+00:00</time>
        <ele>2274.0</ele>
      </trkpt>
      <trkpt lat="46.320534" lon="9.907162">
        <time>1970-01-01T00:00:00+00:00</time>
        <ele>2275.0</ele>
      </trkpt>
      <trkpt lat="46.320478" lon="9.907043">
        <time>1970-01-01T00:00:00+00:00</time>
        <ele>2272.0</ele>
      </trkpt>
      <trkpt lat="46.320461" lon="9.90695">
        <time>1970-01-01T00:00:00+00:00</time>
        <ele>2272.0</ele>
      </trkpt>
      <trkpt lat="46.320478" lon="9.906883">
        <time>1970-01-01T00:00:00+00:00</time>
        <ele>2273.0</ele>
      </trkpt>
      <trkpt lat="46.320512" lon="9.906835">
        <time>1970-01-01T00:00:00+00:00</time>
        <ele>2274.0</ele>
      </trkpt>
      <trkpt lat="46.320584" lon="9.906823">
        <time>1970-01-01T00:00:00+00:00</time>
        <ele>2278.0</ele>
      </trkpt>
      <trkpt lat="46.320683" lon="9.906923">
        <time>1970-01-01T00:00:00+00:00</time>
        <ele>2284.0</ele>
      </trkpt>
      <trkpt lat="46.320867" lon="9.907197">
        <time>1970-01-01T00:00:00+00:00</time>
        <ele>2291.0</ele>
      </trkpt>
      <trkpt lat="46.321112" lon="9.907365">
        <time>1970-01-01T00:00:00+00:00</time>
        <ele>2302.0</ele>
      </trkpt>
      <trkpt lat="46.321193" lon="9.907377">
        <time>1970-01-01T00:00:00+00:00</time>
        <ele>2306.0</ele>
      </trkpt>
      <trkpt lat="46.321286" lon="9.907447">
        <time>1970-01-01T00:00:00+00:00</time>
        <ele>2311.0</ele>
      </trkpt>
      <trkpt lat="46.321439" lon="9.907467">
        <time>1970-01-01T00:00:00+00:00</time>
        <ele>2318.0</ele>
      </trkpt>
      <trkpt lat="46.321554" lon="9.907528">
        <time>1970-01-01T00:00:00+00:00</time>
        <ele>2324.0</ele>
      </trkpt>
      <trkpt lat="46.321625" lon="9.907521">
        <time>1970-01-01T00:00:00+00:00</time>
        <ele>2326.0</ele>
      </trkpt>
      <trkpt lat="46.32169" lon="9.907472">
        <time>1970-01-01T00:00:00+00:00</time>
        <ele>2326.0</ele>
      </trkpt>
      <trkpt lat="46.321736" lon="9.907311">
        <time>1970-01-01T00:00:00+00:00</time>
        <ele>2323.0</ele>
      </trkpt>
      <trkpt lat="46.32178" lon="9.907283">
        <time>1970-01-01T00:00:00+00:00</time>
        <ele>2324.0</ele>
      </trkpt>
      <trkpt lat="46.32194" lon="9.907584">
        <time>1970-01-01T00:00:00+00:00</time>
        <ele>2334.0</ele>
      </trkpt>
      <trkpt lat="46.321974" lon="9.907574">
        <time>1970-01-01T00:00:00+00:00</time>
        <ele>2335.0</ele>
      </trkpt>
      <trkpt lat="46.321991" lon="9.907531">
        <time>1970-01-01T00:00:00+00:00</time>
        <ele>2335.0</ele>
      </trkpt>
      <trkpt lat="46.322012" lon="9.907325">
        <time>1970-01-01T00:00:00+00:00</time>
        <ele>2333.0</ele>
      </trkpt>
      <trkpt lat="46.322056" lon="9.907336">
        <time>1970-01-01T00:00:00+00:00</time>
        <ele>2335.0</ele>
      </trkpt>
      <trkpt lat="46.322195" lon="9.907747">
        <time>1970-01-01T00:00:00+00:00</time>
        <ele>2343.0</ele>
      </trkpt>
      <trkpt lat="46.322225" lon="9.907801">
        <time>1970-01-01T00:00:00+00:00</time>
        <ele>2346.0</ele>
      </trkpt>
      <trkpt lat="46.322259" lon="9.907766">
        <time>1970-01-01T00:00:00+00:00</time>
        <ele>2346.0</ele>
      </trkpt>
      <trkpt lat="46.322279" lon="9.907663">
        <time>1970-01-01T00:00:00+00:00</time>
        <ele>2346.0</ele>
      </trkpt>
      <trkpt lat="46.322273" lon="9.907562">
        <time>1970-01-01T00:00:00+00:00</time>
        <ele>2345.0</ele>
      </trkpt>
      <trkpt lat="46.322301" lon="9.907476">
        <time>1970-01-01T00:00:00+00:00</time>
        <ele>2346.0</ele>
      </trkpt>
      <trkpt lat="46.32237" lon="9.907376">
        <time>1970-01-01T00:00:00+00:00</time>
        <ele>2349.0</ele>
      </trkpt>
      <trkpt lat="46.322434" lon="9.907351">
        <time>1970-01-01T00:00:00+00:00</time>
        <ele>2351.0</ele>
      </trkpt>
      <trkpt lat="46.322718" lon="9.90741">
        <time>1970-01-01T00:00:00+00:00</time>
        <ele>2358.0</ele>
      </trkpt>
      <trkpt lat="46.322812" lon="9.907348">
        <time>1970-01-01T00:00:00+00:00</time>
        <ele>2357.0</ele>
      </trkpt>
      <trkpt lat="46.32298" lon="9.90739">
        <time>1970-01-01T00:00:00+00:00</time>
        <ele>2358.0</ele>
      </trkpt>
      <trkpt lat="46.32311" lon="9.907358">
        <time>1970-01-01T00:00:00+00:00</time>
        <ele>2359.0</ele>
      </trkpt>
      <trkpt lat="46.323197" lon="9.907367">
        <time>1970-01-01T00:00:00+00:00</time>
        <ele>2360.0</ele>
      </trkpt>
      <trkpt lat="46.323204" lon="9.907284">
        <time>1970-01-01T00:00:00+00:00</time>
        <ele>2359.0</ele>
      </trkpt>
      <trkpt lat="46.323239" lon="9.907192">
        <time>1970-01-01T00:00:00+00:00</time>
        <ele>2359.0</ele>
      </trkpt>
      <trkpt lat="46.323427" lon="9.9069">
        <time>1970-01-01T00:00:00+00:00</time>
        <ele>2366.0</ele>
      </trkpt>
      <trkpt lat="46.323642" lon="9.906616">
        <time>1970-01-01T00:00:00+00:00</time>
        <ele>2371.0</ele>
      </trkpt>
      <trkpt lat="46.32371" lon="9.906481">
        <time>1970-01-01T00:00:00+00:00</time>
        <ele>2371.0</ele>
      </trkpt>
      <trkpt lat="46.323764" lon="9.906337">
        <time>1970-01-01T00:00:00+00:00</time>
        <ele>2371.0</ele>
      </trkpt>
      <trkpt lat="46.323831" lon="9.905859">
        <time>1970-01-01T00:00:00+00:00</time>
        <ele>2375.0</ele>
      </trkpt>
      <trkpt lat="46.323899" lon="9.905573">
        <time>1970-01-01T00:00:00+00:00</time>
        <ele>2381.0</ele>
      </trkpt>
      <trkpt lat="46.323918" lon="9.905397">
        <time>1970-01-01T00:00:00+00:00</time>
        <ele>2383.0</ele>
      </trkpt>
      <trkpt lat="46.323999" lon="9.905175">
        <time>1970-01-01T00:00:00+00:00</time>
        <ele>2389.0</ele>
      </trkpt>
      <trkpt lat="46.324177" lon="9.90486">
        <time>1970-01-01T00:00:00+00:00</time>
        <ele>2396.0</ele>
      </trkpt>
      <trkpt lat="46.324287" lon="9.904822">
        <time>1970-01-01T00:00:00+00:00</time>
        <ele>2398.0</ele>
      </trkpt>
      <trkpt lat="46.32481" lon="9.90474">
        <time>1970-01-01T00:00:00+00:00</time>
        <ele>2412.0</ele>
      </trkpt>
      <trkpt lat="46.324872" lon="9.904694">
        <time>1970-01-01T00:00:00+00:00</time>
        <ele>2414.0</ele>
      </trkpt>
      <trkpt lat="46.324913" lon="9.904635">
        <time>1970-01-01T00:00:00+00:00</time>
        <ele>2416.0</ele>
      </trkpt>
      <trkpt lat="46.324945" lon="9.904645">
        <time>1970-01-01T00:00:00+00:00</time>
        <ele>2417.0</ele>
      </trkpt>
      <trkpt lat="46.324958" lon="9.904738">
        <time>1970-01-01T00:00:00+00:00</time>
        <ele>2418.0</ele>
      </trkpt>
      <trkpt lat="46.324961" lon="9.90499">
        <time>1970-01-01T00:00:00+00:00</time>
        <ele>2420.0</ele>
      </trkpt>
      <trkpt lat="46.324981" lon="9.90505">
        <time>1970-01-01T00:00:00+00:00</time>
        <ele>2421.0</ele>
      </trkpt>
      <trkpt lat="46.325094" lon="9.904965">
        <time>1970-01-01T00:00:00+00:00</time>
        <ele>2425.0</ele>
      </trkpt>
      <trkpt lat="46.325354" lon="9.904625">
        <time>1970-01-01T00:00:00+00:00</time>
        <ele>2435.0</ele>
      </trkpt>
      <trkpt lat="46.325382" lon="9.904621">
        <time>1970-01-01T00:00:00+00:00</time>
        <ele>2436.0</ele>
      </trkpt>
      <trkpt lat="46.325502" lon="9.904938">
        <time>1970-01-01T00:00:00+00:00</time>
        <ele>2441.0</ele>
      </trkpt>
      <trkpt lat="46.325553" lon="9.905022">
        <time>1970-01-01T00:00:00+00:00</time>
        <ele>2444.0</ele>
      </trkpt>
      <trkpt lat="46.325656" lon="9.905067">
        <time>1970-01-01T00:00:00+00:00</time>
        <ele>2448.0</ele>
      </trkpt>
      <trkpt lat="46.325887" lon="9.90498">
        <time>1970-01-01T00:00:00+00:00</time>
        <ele>2453.0</ele>
      </trkpt>
      <trkpt lat="46.326016" lon="9.904958">
        <time>1970-01-01T00:00:00+00:00</time>
        <ele>2456.0</ele>
      </trkpt>
      <trkpt lat="46.326122" lon="9.904969">
        <time>1970-01-01T00:00:00+00:00</time>
        <ele>2458.0</ele>
      </trkpt>
      <trkpt lat="46.326285" lon="9.904868">
        <time>1970-01-01T00:00:00+00:00</time>
        <ele>2459.0</ele>
      </trkpt>
      <trkpt lat="46.326372" lon="9.9049">
        <time>1970-01-01T00:00:00+00:00</time>
        <ele>2460.0</ele>
      </trkpt>
      <trkpt lat="46.326487" lon="9.90498">
        <time>1970-01-01T00:00:00+00:00</time>
        <ele>2460.0</ele>
      </trkpt>
      <trkpt lat="46.326612" lon="9.904965">
        <time>1970-01-01T00:00:00+00:00</time>
        <ele>2461.0</ele>
      </trkpt>
      <trkpt lat="46.326791" lon="9.904867">
        <time>1970-01-01T00:00:00+00:00</time>
        <ele>2464.0</ele>
      </trkpt>
      <trkpt lat="46.326824" lon="9.904817">
        <time>1970-01-01T00:00:00+00:00</time>
        <ele>2465.0</ele>
      </trkpt>
      <trkpt lat="46.326853" lon="9.904663">
        <time>1970-01-01T00:00:00+00:00</time>
        <ele>2466.0</ele>
      </trkpt>
      <trkpt lat="46.326903" lon="9.904512">
        <time>1970-01-01T00:00:00+00:00</time>
        <ele>2468.0</ele>
      </trkpt>
      <trkpt lat="46.326961" lon="9.90444">
        <time>1970-01-01T00:00:00+00:00</time>
        <ele>2470.0</ele>
      </trkpt>
      <trkpt lat="46.32708" lon="9.904375">
        <time>1970-01-01T00:00:00+00:00</time>
        <ele>2473.0</ele>
      </trkpt>
      <trkpt lat="46.327198" lon="9.904391">
        <time>1970-01-01T00:00:00+00:00</time>
        <ele>2476.0</ele>
      </trkpt>
      <trkpt lat="46.327255" lon="9.904425">
        <time>1970-01-01T00:00:00+00:00</time>
        <ele>2478.0</ele>
      </trkpt>
      <trkpt lat="46.327498" lon="9.904749">
        <time>1970-01-01T00:00:00+00:00</time>
        <ele>2479.0</ele>
      </trkpt>
      <trkpt lat="46.327518" lon="9.904722">
        <time>1970-01-01T00:00:00+00:00</time>
        <ele>2480.0</ele>
      </trkpt>
      <trkpt lat="46.327513" lon="9.904569">
        <time>1970-01-01T00:00:00+00:00</time>
        <ele>2483.0</ele>
      </trkpt>
      <trkpt lat="46.327465" lon="9.904173">
        <time>1970-01-01T00:00:00+00:00</time>
        <ele>2489.0</ele>
      </trkpt>
      <trkpt lat="46.327475" lon="9.904133">
        <time>1970-01-01T00:00:00+00:00</time>
        <ele>2490.0</ele>
      </trkpt>
      <trkpt lat="46.327523" lon="9.904149">
        <time>1970-01-01T00:00:00+00:00</time>
        <ele>2491.0</ele>
      </trkpt>
      <trkpt lat="46.327797" lon="9.904466">
        <time>1970-01-01T00:00:00+00:00</time>
        <ele>2503.0</ele>
      </trkpt>
      <trkpt lat="46.327877" lon="9.904534">
        <time>1970-01-01T00:00:00+00:00</time>
        <ele>2506.0</ele>
      </trkpt>
      <trkpt lat="46.32793" lon="9.904547">
        <time>1970-01-01T00:00:00+00:00</time>
        <ele>2508.0</ele>
      </trkpt>
      <trkpt lat="46.327863" lon="9.904328">
        <time>1970-01-01T00:00:00+00:00</time>
        <ele>2510.0</ele>
      </trkpt>
      <trkpt lat="46.327856" lon="9.904244">
        <time>1970-01-01T00:00:00+00:00</time>
        <ele>2512.0</ele>
      </trkpt>
      <trkpt lat="46.327901" lon="9.904255">
        <time>1970-01-01T00:00:00+00:00</time>
        <ele>2515.0</ele>
      </trkpt>
      <trkpt lat="46.328101" lon="9.904436">
        <time>1970-01-01T00:00:00+00:00</time>
        <ele>2519.0</ele>
      </trkpt>
      <trkpt lat="46.328184" lon="9.90447">
        <time>1970-01-01T00:00:00+00:00</time>
        <ele>2523.0</ele>
      </trkpt>
      <trkpt lat="46.32818" lon="9.904433">
        <time>1970-01-01T00:00:00+00:00</time>
        <ele>2523.0</ele>
      </trkpt>
      <trkpt lat="46.328118" lon="9.904324">
        <time>1970-01-01T00:00:00+00:00</time>
        <ele>2522.0</ele>
      </trkpt>
      <trkpt lat="46.328097" lon="9.904156">
        <time>1970-01-01T00:00:00+00:00</time>
        <ele>2524.0</ele>
      </trkpt>
      <trkpt lat="46.328117" lon="9.904136">
        <time>1970-01-01T00:00:00+00:00</time>
        <ele>2525.0</ele>
      </trkpt>
      <trkpt lat="46.328165" lon="9.904168">
        <time>1970-01-01T00:00:00+00:00</time>
        <ele>2528.0</ele>
      </trkpt>
      <trkpt lat="46.328254" lon="9.904264">
        <time>1970-01-01T00:00:00+00:00</time>
        <ele>2531.0</ele>
      </trkpt>
      <trkpt lat="46.328279" lon="9.904269">
        <time>1970-01-01T00:00:00+00:00</time>
        <ele>2532.0</ele>
      </trkpt>
      <trkpt lat="46.328296" lon="9.904246">
        <time>1970-01-01T00:00:00+00:00</time>
        <ele>2533.0</ele>
      </trkpt>
      <trkpt lat="46.328353" lon="9.903632">
        <time>1970-01-01T00:00:00+00:00</time>
        <ele>2544.0</ele>
      </trkpt>
      <trkpt lat="46.328392" lon="9.903518">
        <time>1970-01-01T00:00:00+00:00</time>
        <ele>2547.0</ele>
      </trkpt>
      <trkpt lat="46.328497" lon="9.903358">
        <time>1970-01-01T00:00:00+00:00</time>
        <ele>2552.0</ele>
      </trkpt>
      <trkpt lat="46.328565" lon="9.903297">
        <time>1970-01-01T00:00:00+00:00</time>
        <ele>2553.0</ele>
      </trkpt>
      <trkpt lat="46.328583" lon="9.903249">
        <time>1970-01-01T00:00:00+00:00</time>
        <ele>2554.0</ele>
      </trkpt>
      <trkpt lat="46.32855" lon="9.903073">
        <time>1970-01-01T00:00:00+00:00</time>
        <ele>2554.0</ele>
      </trkpt>
      <trkpt lat="46.328552" lon="9.903021">
        <time>1970-01-01T00:00:00+00:00</time>
        <ele>2555.0</ele>
      </trkpt>
      <trkpt lat="46.328576" lon="9.902987">
        <time>1970-01-01T00:00:00+00:00</time>
        <ele>2557.0</ele>
      </trkpt>
      <trkpt lat="46.3286" lon="9.902982">
        <time>1970-01-01T00:00:00+00:00</time>
        <ele>2557.0</ele>
      </trkpt>
      <trkpt lat="46.328657" lon="9.903005">
        <time>1970-01-01T00:00:00+00:00</time>
        <ele>2559.0</ele>
      </trkpt>
      <trkpt lat="46.328736" lon="9.903002">
        <time>1970-01-01T00:00:00+00:00</time>
        <ele>2561.0</ele>
      </trkpt>
      <trkpt lat="46.328748" lon="9.902968">
        <time>1970-01-01T00:00:00+00:00</time>
        <ele>2562.0</ele>
      </trkpt>
      <trkpt lat="46.328741" lon="9.902879">
        <time>1970-01-01T00:00:00+00:00</time>
        <ele>2563.0</ele>
      </trkpt>
      <trkpt lat="46.328758" lon="9.902833">
        <time>1970-01-01T00:00:00+00:00</time>
        <ele>2565.0</ele>
      </trkpt>
      <trkpt lat="46.328854" lon="9.902775">
        <time>1970-01-01T00:00:00+00:00</time>
        <ele>2568.0</ele>
      </trkpt>
      <trkpt lat="46.328991" lon="9.902637">
        <time>1970-01-01T00:00:00+00:00</time>
        <ele>2574.0</ele>
      </trkpt>
      <trkpt lat="46.329233" lon="9.902553">
        <time>1970-01-01T00:00:00+00:00</time>
        <ele>2579.0</ele>
      </trkpt>
      <trkpt lat="46.329327" lon="9.902586">
        <time>1970-01-01T00:00:00+00:00</time>
        <ele>2581.0</ele>
      </trkpt>
      <trkpt lat="46.329339" lon="9.902558">
        <time>1970-01-01T00:00:00+00:00</time>
        <ele>2582.0</ele>
      </trkpt>
      <trkpt lat="46.329276" lon="9.902341">
        <time>1970-01-01T00:00:00+00:00</time>
        <ele>2584.0</ele>
      </trkpt>
      <trkpt lat="46.329286" lon="9.902281">
        <time>1970-01-01T00:00:00+00:00</time>
        <ele>2587.0</ele>
      </trkpt>
      <trkpt lat="46.329327" lon="9.902275">
        <time>1970-01-01T00:00:00+00:00</time>
        <ele>2589.0</ele>
      </trkpt>
      <trkpt lat="46.329447" lon="9.902315">
        <time>1970-01-01T00:00:00+00:00</time>
        <ele>2591.0</ele>
      </trkpt>
      <trkpt lat="46.329535" lon="9.902368">
        <time>1970-01-01T00:00:00+00:00</time>
        <ele>2592.0</ele>
      </trkpt>
      <trkpt lat="46.329548" lon="9.902325">
        <time>1970-01-01T00:00:00+00:00</time>
        <ele>2594.0</ele>
      </trkpt>
      <trkpt lat="46.32943" lon="9.901908">
        <time>1970-01-01T00:00:00+00:00</time>
        <ele>2609.0</ele>
      </trkpt>
      <trkpt lat="46.329432" lon="9.901861">
        <time>1970-01-01T00:00:00+00:00</time>
        <ele>2611.0</ele>
      </trkpt>
      <trkpt lat="46.329465" lon="9.901851">
        <time>1970-01-01T00:00:00+00:00</time>
        <ele>2612.0</ele>
      </trkpt>
      <trkpt lat="46.329701" lon="9.902071">
        <time>1970-01-01T00:00:00+00:00</time>
        <ele>2611.0</ele>
      </trkpt>
      <trkpt lat="46.329919" lon="9.90224">
        <time>1970-01-01T00:00:00+00:00</time>
        <ele>2615.0</ele>
      </trkpt>
      <trkpt lat="46.330021" lon="9.902278">
        <time>1970-01-01T00:00:00+00:00</time>
        <ele>2617.0</ele>
      </trkpt>
      <trkpt lat="46.330048" lon="9.902242">
        <time>1970-01-01T00:00:00+00:00</time>
        <ele>2619.0</ele>
      </trkpt>
      <trkpt lat="46.330029" lon="9.901869">
        <time>1970-01-01T00:00:00+00:00</time>
        <ele>2630.0</ele>
      </trkpt>
      <trkpt lat="46.330145" lon="9.901703">
        <time>1970-01-01T00:00:00+00:00</time>
        <ele>2637.0</ele>
      </trkpt>
      <trkpt lat="46.330342" lon="9.901558">
        <time>1970-01-01T00:00:00+00:00</time>
        <ele>2647.0</ele>
      </trkpt>
      <trkpt lat="46.330364" lon="9.901522">
        <time>1970-01-01T00:00:00+00:00</time>
        <ele>2649.0</ele>
      </trkpt>
      <trkpt lat="46.330369" lon="9.901437">
        <time>1970-01-01T00:00:00+00:00</time>
        <ele>2651.0</ele>
      </trkpt>
      <trkpt lat="46.330401" lon="9.901385">
        <time>1970-01-01T00:00:00+00:00</time>
        <ele>2653.0</ele>
      </trkpt>
      <trkpt lat="46.330381" lon="9.901291">
        <time>1970-01-01T00:00:00+00:00</time>
        <ele>2655.0</ele>
      </trkpt>
      <trkpt lat="46.330391" lon="9.901241">
        <time>1970-01-01T00:00:00+00:00</time>
        <ele>2656.0</ele>
      </trkpt>
      <trkpt lat="46.330498" lon="9.901282">
        <time>1970-01-01T00:00:00+00:00</time>
        <ele>2658.0</ele>
      </trkpt>
      <trkpt lat="46.330515" lon="9.901254">
        <time>1970-01-01T00:00:00+00:00</time>
        <ele>2659.0</ele>
      </trkpt>
      <trkpt lat="46.331007" lon="9.901358">
        <time>1970-01-01T00:00:00+00:00</time>
        <ele>2675.0</ele>
      </trkpt>
      <trkpt lat="46.331225" lon="9.901331">
        <time>1970-01-01T00:00:00+00:00</time>
        <ele>2677.0</ele>
      </trkpt>
      <trkpt lat="46.331575" lon="9.901395">
        <time>1970-01-01T00:00:00+00:00</time>
        <ele>2686.0</ele>
      </trkpt>
      <trkpt lat="46.331763" lon="9.901353">
        <time>1970-01-01T00:00:00+00:00</time>
        <ele>2686.0</ele>
      </trkpt>
      <trkpt lat="46.331896" lon="9.901383">
        <time>1970-01-01T00:00:00+00:00</time>
        <ele>2687.0</ele>
      </trkpt>
      <trkpt lat="46.332091" lon="9.901381">
        <time>1970-01-01T00:00:00+00:00</time>
        <ele>2687.0</ele>
      </trkpt>
      <trkpt lat="46.332182" lon="9.901418">
        <time>1970-01-01T00:00:00+00:00</time>
        <ele>2689.0</ele>
      </trkpt>
      <trkpt lat="46.332277" lon="9.901416">
        <time>1970-01-01T00:00:00+00:00</time>
        <ele>2690.0</ele>
      </trkpt>
      <trkpt lat="46.332605" lon="9.901476">
        <time>1970-01-01T00:00:00+00:00</time>
        <ele>2696.0</ele>
      </trkpt>
      <trkpt lat="46.332655" lon="9.901533">
        <time>1970-01-01T00:00:00+00:00</time>
        <ele>2699.0</ele>
      </trkpt>
      <trkpt lat="46.333041" lon="9.901585">
        <time>1970-01-01T00:00:00+00:00</time>
        <ele>2699.0</ele>
      </trkpt>
      <trkpt lat="46.333701" lon="9.90162">
        <time>1970-01-01T00:00:00+00:00</time>
        <ele>2702.0</ele>
      </trkpt>
      <trkpt lat="46.333886" lon="9.901576">
        <time>1970-01-01T00:00:00+00:00</time>
        <ele>2704.0</ele>
      </trkpt>
      <trkpt lat="46.334328" lon="9.901328">
        <time>1970-01-01T00:00:00+00:00</time>
        <ele>2710.0</ele>
      </trkpt>
      <trkpt lat="46.334508" lon="9.901139">
        <time>1970-01-01T00:00:00+00:00</time>
        <ele>2708.0</ele>
      </trkpt>
      <trkpt lat="46.33471" lon="9.901012">
        <time>1970-01-01T00:00:00+00:00</time>
        <ele>2711.0</ele>
      </trkpt>
      <trkpt lat="46.334808" lon="9.900874">
        <time>1970-01-01T00:00:00+00:00</time>
        <ele>2710.0</ele>
      </trkpt>
      <trkpt lat="46.334835" lon="9.900764">
        <time>1970-01-01T00:00:00+00:00</time>
        <ele>2707.0</ele>
      </trkpt>
      <trkpt lat="46.335132" lon="9.900574">
        <time>1970-01-01T00:00:00+00:00</time>
        <ele>2708.0</ele>
      </trkpt>
      <trkpt lat="46.335294" lon="9.900503">
        <time>1970-01-01T00:00:00+00:00</time>
        <ele>2709.0</ele>
      </trkpt>
      <trkpt lat="46.33568" lon="9.900397">
        <time>1970-01-01T00:00:00+00:00</time>
        <ele>2715.0</ele>
      </trkpt>
      <trkpt lat="46.335989" lon="9.900587">
        <time>1970-01-01T00:00:00+00:00</time>
        <ele>2737.0</ele>
      </trkpt>
      <trkpt lat="46.336172" lon="9.900608">
        <time>1970-01-01T00:00:00+00:00</time>
        <ele>2737.0</ele>
      </trkpt>
      <trkpt lat="46.336294" lon="9.900716">
        <time>1970-01-01T00:00:00+00:00</time>
        <ele>2739.0</ele>
      </trkpt>
      <trkpt lat="46.336399" lon="9.900714">
        <time>1970-01-01T00:00:00+00:00</time>
        <ele>2735.0</ele>
      </trkpt>
      <trkpt lat="46.336661" lon="9.900655">
        <time>1970-01-01T00:00:00+00:00</time>
        <ele>2726.0</ele>
      </trkpt>
      <trkpt lat="46.336737" lon="9.900664">
        <time>1970-01-01T00:00:00+00:00</time>
        <ele>2724.0</ele>
      </trkpt>
      <trkpt lat="46.336813" lon="9.900785">
        <time>1970-01-01T00:00:00+00:00</time>
        <ele>2724.0</ele>
      </trkpt>
      <trkpt lat="46.336943" lon="9.900892">
        <time>1970-01-01T00:00:00+00:00</time>
        <ele>2719.0</ele>
      </trkpt>
      <trkpt lat="46.33704" lon="9.900892">
        <time>1970-01-01T00:00:00+00:00</time>
        <ele>2715.0</ele>
      </trkpt>
      <trkpt lat="46.337455" lon="9.900817">
        <time>1970-01-01T00:00:00+00:00</time>
        <ele>2703.0</ele>
      </trkpt>
      <trkpt lat="46.337306" lon="9.901192">
        <time>1970-01-01T00:00:00+00:00</time>
        <ele>2699.0</ele>
      </trkpt>
      <trkpt lat="46.337136" lon="9.901321">
        <time>1970-01-01T00:00:00+00:00</time>
        <ele>2701.0</ele>
      </trkpt>
      <trkpt lat="46.33718" lon="9.901632">
        <time>1970-01-01T00:00:00+00:00</time>
        <ele>2689.0</ele>
      </trkpt>
      <trkpt lat="46.337343" lon="9.901965">
        <time>1970-01-01T00:00:00+00:00</time>
        <ele>2677.0</ele>
      </trkpt>
      <trkpt lat="46.338306" lon="9.902576">
        <time>1970-01-01T00:00:00+00:00</time>
        <ele>2630.0</ele>
      </trkpt>
      <trkpt lat="46.33881" lon="9.902233">
        <time>1970-01-01T00:00:00+00:00</time>
        <ele>2615.0</ele>
      </trkpt>
      <trkpt lat="46.339343" lon="9.902383">
        <time>1970-01-01T00:00:00+00:00</time>
        <ele>2611.0</ele>
      </trkpt>
      <trkpt lat="46.33981" lon="9.902726">
        <time>1970-01-01T00:00:00+00:00</time>
        <ele>2610.0</ele>
      </trkpt>
      <trkpt lat="46.340202" lon="9.902839">
        <time>1970-01-01T00:00:00+00:00</time>
        <ele>2609.0</ele>
      </trkpt>
      <trkpt lat="46.340443" lon="9.90281">
        <time>1970-01-01T00:00:00+00:00</time>
        <ele>2609.0</ele>
      </trkpt>
      <trkpt lat="46.340533" lon="9.903042">
        <time>1970-01-01T00:00:00+00:00</time>
        <ele>2608.0</ele>
      </trkpt>
      <trkpt lat="46.340484" lon="9.903726">
        <time>1970-01-01T00:00:00+00:00</time>
        <ele>2603.0</ele>
      </trkpt>
      <trkpt lat="46.340504" lon="9.904017">
        <time>1970-01-01T00:00:00+00:00</time>
        <ele>2601.0</ele>
      </trkpt>
      <trkpt lat="46.340463" lon="9.904289">
        <time>1970-01-01T00:00:00+00:00</time>
        <ele>2599.0</ele>
      </trkpt>
      <trkpt lat="46.340553" lon="9.904704">
        <time>1970-01-01T00:00:00+00:00</time>
        <ele>2598.0</ele>
      </trkpt>
      <trkpt lat="46.340563" lon="9.905042">
        <time>1970-01-01T00:00:00+00:00</time>
        <ele>2598.0</ele>
      </trkpt>
      <trkpt lat="46.340606" lon="9.905157">
        <time>1970-01-01T00:00:00+00:00</time>
        <ele>2599.0</ele>
      </trkpt>
      <trkpt lat="46.340702" lon="9.905236">
        <time>1970-01-01T00:00:00+00:00</time>
        <ele>2598.0</ele>
      </trkpt>
      <trkpt lat="46.340744" lon="9.905339">
        <time>1970-01-01T00:00:00+00:00</time>
        <ele>2599.0</ele>
      </trkpt>
      <trkpt lat="46.340805" lon="9.905416">
        <time>1970-01-01T00:00:00+00:00</time>
        <ele>2598.0</ele>
      </trkpt>
      <trkpt lat="46.340871" lon="9.905656">
        <time>1970-01-01T00:00:00+00:00</time>
        <ele>2599.0</ele>
      </trkpt>
      <trkpt lat="46.340909" lon="9.905719">
        <time>1970-01-01T00:00:00+00:00</time>
        <ele>2599.0</ele>
      </trkpt>
      <trkpt lat="46.341179" lon="9.905999">
        <time>1970-01-01T00:00:00+00:00</time>
        <ele>2599.0</ele>
      </trkpt>
      <trkpt lat="46.341268" lon="9.906249">
        <time>1970-01-01T00:00:00+00:00</time>
        <ele>2600.0</ele>
      </trkpt>
      <trkpt lat="46.341349" lon="9.906618">
        <time>1970-01-01T00:00:00+00:00</time>
        <ele>2603.0</ele>
      </trkpt>
      <trkpt lat="46.341432" lon="9.906793">
        <time>1970-01-01T00:00:00+00:00</time>
        <ele>2605.0</ele>
      </trkpt>
      <trkpt lat="46.341548" lon="9.906817">
        <time>1970-01-01T00:00:00+00:00</time>
        <ele>2606.0</ele>
      </trkpt>
      <trkpt lat="46.341623" lon="9.906809">
        <time>1970-01-01T00:00:00+00:00</time>
        <ele>2607.0</ele>
      </trkpt>
      <trkpt lat="46.341846" lon="9.906579">
        <time>1970-01-01T00:00:00+00:00</time>
        <ele>2611.0</ele>
      </trkpt>
      <trkpt lat="46.341914" lon="9.906403">
        <time>1970-01-01T00:00:00+00:00</time>
        <ele>2610.0</ele>
      </trkpt>
      <trkpt lat="46.341995" lon="9.90631">
        <time>1970-01-01T00:00:00+00:00</time>
        <ele>2611.0</ele>
      </trkpt>
      <trkpt lat="46.342048" lon="9.906297">
        <time>1970-01-01T00:00:00+00:00</time>
        <ele>2612.0</ele>
      </trkpt>
      <trkpt lat="46.342118" lon="9.906332">
        <time>1970-01-01T00:00:00+00:00</time>
        <ele>2615.0</ele>
      </trkpt>
      <trkpt lat="46.342265" lon="9.906538">
        <time>1970-01-01T00:00:00+00:00</time>
        <ele>2622.0</ele>
      </trkpt>
      <trkpt lat="46.342322" lon="9.906697">
        <time>1970-01-01T00:00:00+00:00</time>
        <ele>2626.0</ele>
      </trkpt>
      <trkpt lat="46.342505" lon="9.90703">
        <time>1970-01-01T00:00:00+00:00</time>
        <ele>2635.0</ele>
      </trkpt>
      <trkpt lat="46.342495" lon="9.907103">
        <time>1970-01-01T00:00:00+00:00</time>
        <ele>2635.0</ele>
      </trkpt>
      <trkpt lat="46.342555" lon="9.907457">
        <time>1970-01-01T00:00:00+00:00</time>
        <ele>2641.0</ele>
      </trkpt>
      <trkpt lat="46.342606" lon="9.907613">
        <time>1970-01-01T00:00:00+00:00</time>
        <ele>2643.0</ele>
      </trkpt>
      <trkpt lat="46.342605" lon="9.907748">
        <time>1970-01-01T00:00:00+00:00</time>
        <ele>2645.0</ele>
      </trkpt>
      <trkpt lat="46.342673" lon="9.907867">
        <time>1970-01-01T00:00:00+00:00</time>
        <ele>2648.0</ele>
      </trkpt>
      <trkpt lat="46.342681" lon="9.908008">
        <time>1970-01-01T00:00:00+00:00</time>
        <ele>2650.0</ele>
      </trkpt>
      <trkpt lat="46.342722" lon="9.908126">
        <time>1970-01-01T00:00:00+00:00</time>
        <ele>2653.0</ele>
      </trkpt>
      <trkpt lat="46.342742" lon="9.908684">
        <time>1970-01-01T00:00:00+00:00</time>
        <ele>2660.0</ele>
      </trkpt>
      <trkpt lat="46.342779" lon="9.908814">
        <time>1970-01-01T00:00:00+00:00</time>
        <ele>2661.0</ele>
      </trkpt>
      <trkpt lat="46.342967" lon="9.90935">
        <time>1970-01-01T00:00:00+00:00</time>
        <ele>2669.0</ele>
      </trkpt>
      <trkpt lat="46.343034" lon="9.909476">
        <time>1970-01-01T00:00:00+00:00</time>
        <ele>2673.0</ele>
      </trkpt>
      <trkpt lat="46.343124" lon="9.909577">
        <time>1970-01-01T00:00:00+00:00</time>
        <ele>2676.0</ele>
      </trkpt>
      <trkpt lat="46.34339" lon="9.910108">
        <time>1970-01-01T00:00:00+00:00</time>
        <ele>2687.0</ele>
      </trkpt>
      <trkpt lat="46.343428" lon="9.910105">
        <time>1970-01-01T00:00:00+00:00</time>
        <ele>2689.0</ele>
      </trkpt>
      <trkpt lat="46.343454" lon="9.910073">
        <time>1970-01-01T00:00:00+00:00</time>
        <ele>2690.0</ele>
      </trkpt>
      <trkpt lat="46.343487" lon="9.910085">
        <time>1970-01-01T00:00:00+00:00</time>
        <ele>2692.0</ele>
      </trkpt>
      <trkpt lat="46.343577" lon="9.910292">
        <time>1970-01-01T00:00:00+00:00</time>
        <ele>2693.0</ele>
      </trkpt>
      <trkpt lat="46.343613" lon="9.910315">
        <time>1970-01-01T00:00:00+00:00</time>
        <ele>2695.0</ele>
      </trkpt>
      <trkpt lat="46.343639" lon="9.910242">
        <time>1970-01-01T00:00:00+00:00</time>
        <ele>2697.0</ele>
      </trkpt>
      <trkpt lat="46.343661" lon="9.91003">
        <time>1970-01-01T00:00:00+00:00</time>
        <ele>2702.0</ele>
      </trkpt>
      <trkpt lat="46.343679" lon="9.909998">
        <time>1970-01-01T00:00:00+00:00</time>
        <ele>2704.0</ele>
      </trkpt>
      <trkpt lat="46.343742" lon="9.910063">
        <time>1970-01-01T00:00:00+00:00</time>
        <ele>2706.0</ele>
      </trkpt>
      <trkpt lat="46.343848" lon="9.910103">
        <time>1970-01-01T00:00:00+00:00</time>
        <ele>2711.0</ele>
      </trkpt>
      <trkpt lat="46.343859" lon="9.910074">
        <time>1970-01-01T00:00:00+00:00</time>
        <ele>2713.0</ele>
      </trkpt>
      <trkpt lat="46.343816" lon="9.909951">
        <time>1970-01-01T00:00:00+00:00</time>
        <ele>2714.0</ele>
      </trkpt>
      <trkpt lat="46.343818" lon="9.909892">
        <time>1970-01-01T00:00:00+00:00</time>
        <ele>2715.0</ele>
      </trkpt>
      <trkpt lat="46.34385" lon="9.909878">
        <time>1970-01-01T00:00:00+00:00</time>
        <ele>2718.0</ele>
      </trkpt>
      <trkpt lat="46.343845" lon="9.909747">
        <time>1970-01-01T00:00:00+00:00</time>
        <ele>2721.0</ele>
      </trkpt>
      <trkpt lat="46.343787" lon="9.909469">
        <time>1970-01-01T00:00:00+00:00</time>
        <ele>2722.0</ele>
      </trkpt>
      <trkpt lat="46.343738" lon="9.909231">
        <time>1970-01-01T00:00:00+00:00</time>
        <ele>2723.0</ele>
      </trkpt>
      <trkpt lat="46.343778" lon="9.908995">
        <time>1970-01-01T00:00:00+00:00</time>
        <ele>2730.0</ele>
      </trkpt>
      <trkpt lat="46.343773" lon="9.908896">
        <time>1970-01-01T00:00:00+00:00</time>
        <ele>2732.0</ele>
      </trkpt>
      <trkpt lat="46.343706" lon="9.908713">
        <time>1970-01-01T00:00:00+00:00</time>
        <ele>2731.0</ele>
      </trkpt>
      <trkpt lat="46.343669" lon="9.908558">
        <time>1970-01-01T00:00:00+00:00</time>
        <ele>2729.0</ele>
      </trkpt>
      <trkpt lat="46.343658" lon="9.908434">
        <time>1970-01-01T00:00:00+00:00</time>
        <ele>2729.0</ele>
      </trkpt>
      <trkpt lat="46.343712" lon="9.908163">
        <time>1970-01-01T00:00:00+00:00</time>
        <ele>2737.0</ele>
      </trkpt>
      <trkpt lat="46.343699" lon="9.908061">
        <time>1970-01-01T00:00:00+00:00</time>
        <ele>2737.0</ele>
      </trkpt>
      <trkpt lat="46.343713" lon="9.907951">
        <time>1970-01-01T00:00:00+00:00</time>
        <ele>2740.0</ele>
      </trkpt>
      <trkpt lat="46.343747" lon="9.907874">
        <time>1970-01-01T00:00:00+00:00</time>
        <ele>2742.0</ele>
      </trkpt>
      <trkpt lat="46.343787" lon="9.907833">
        <time>1970-01-01T00:00:00+00:00</time>
        <ele>2745.0</ele>
      </trkpt>
      <trkpt lat="46.343804" lon="9.907774">
        <time>1970-01-01T00:00:00+00:00</time>
        <ele>2747.0</ele>
      </trkpt>
      <trkpt lat="46.343745" lon="9.907608">
        <time>1970-01-01T00:00:00+00:00</time>
        <ele>2745.0</ele>
      </trkpt>
      <trkpt lat="46.343774" lon="9.907556">
        <time>1970-01-01T00:00:00+00:00</time>
        <ele>2747.0</ele>
      </trkpt>
      <trkpt lat="46.343824" lon="9.907614">
        <time>1970-01-01T00:00:00+00:00</time>
        <ele>2750.0</ele>
      </trkpt>
      <trkpt lat="46.343845" lon="9.907525">
        <time>1970-01-01T00:00:00+00:00</time>
        <ele>2753.0</ele>
      </trkpt>
      <trkpt lat="46.343806" lon="9.907415">
        <time>1970-01-01T00:00:00+00:00</time>
        <ele>2751.0</ele>
      </trkpt>
      <trkpt lat="46.343799" lon="9.907342">
        <time>1970-01-01T00:00:00+00:00</time>
        <ele>2752.0</ele>
      </trkpt>
      <trkpt lat="46.343828" lon="9.907286">
        <time>1970-01-01T00:00:00+00:00</time>
        <ele>2755.0</ele>
      </trkpt>
      <trkpt lat="46.343836" lon="9.907195">
        <time>1970-01-01T00:00:00+00:00</time>
        <ele>2756.0</ele>
      </trkpt>
      <trkpt lat="46.343886" lon="9.907219">
        <time>1970-01-01T00:00:00+00:00</time>
        <ele>2761.0</ele>
      </trkpt>
      <trkpt lat="46.343905" lon="9.907201">
        <time>1970-01-01T00:00:00+00:00</time>
        <ele>2762.0</ele>
      </trkpt>
      <trkpt lat="46.343888" lon="9.907122">
        <time>1970-01-01T00:00:00+00:00</time>
        <ele>2762.0</ele>
      </trkpt>
      <trkpt lat="46.343908" lon="9.907101">
        <time>1970-01-01T00:00:00+00:00</time>
        <ele>2764.0</ele>
      </trkpt>
      <trkpt lat="46.343947" lon="9.907104">
        <time>1970-01-01T00:00:00+00:00</time>
        <ele>2765.0</ele>
      </trkpt>
      <trkpt lat="46.343945" lon="9.907039">
        <time>1970-01-01T00:00:00+00:00</time>
        <ele>2765.0</ele>
      </trkpt>
      <trkpt lat="46.34392" lon="9.906971">
        <time>1970-01-01T00:00:00+00:00</time>
        <ele>2766.0</ele>
      </trkpt>
      <trkpt lat="46.343973" lon="9.906932">
        <time>1970-01-01T00:00:00+00:00</time>
        <ele>2768.0</ele>
      </trkpt>
      <trkpt lat="46.34405" lon="9.906938">
        <time>1970-01-01T00:00:00+00:00</time>
        <ele>2770.0</ele>
      </trkpt>
      <trkpt lat="46.344041" lon="9.906852">
        <time>1970-01-01T00:00:00+00:00</time>
        <ele>2772.0</ele>
      </trkpt>
      <trkpt lat="46.34398" lon="9.906755">
        <time>1970-01-01T00:00:00+00:00</time>
        <ele>2771.0</ele>
      </trkpt>
      <trkpt lat="46.344034" lon="9.906712">
        <time>1970-01-01T00:00:00+00:00</time>
        <ele>2775.0</ele>
      </trkpt>
      <trkpt lat="46.344097" lon="9.906717">
        <time>1970-01-01T00:00:00+00:00</time>
        <ele>2778.0</ele>
      </trkpt>
      <trkpt lat="46.344143" lon="9.906543">
        <time>1970-01-01T00:00:00+00:00</time>
        <ele>2784.0</ele>
      </trkpt>
      <trkpt lat="46.344145" lon="9.906468">
        <time>1970-01-01T00:00:00+00:00</time>
        <ele>2786.0</ele>
      </trkpt>
      <trkpt lat="46.34423" lon="9.906253">
        <time>1970-01-01T00:00:00+00:00</time>
        <ele>2790.0</ele>
      </trkpt>
      <trkpt lat="46.344243" lon="9.906071">
        <time>1970-01-01T00:00:00+00:00</time>
        <ele>2787.0</ele>
      </trkpt>
      <trkpt lat="46.344274" lon="9.906033">
        <time>1970-01-01T00:00:00+00:00</time>
        <ele>2788.0</ele>
      </trkpt>
      <trkpt lat="46.344287" lon="9.905964">
        <time>1970-01-01T00:00:00+00:00</time>
        <ele>2787.0</ele>
      </trkpt>
      <trkpt lat="46.344385" lon="9.905835">
        <time>1970-01-01T00:00:00+00:00</time>
        <ele>2790.0</ele>
      </trkpt>
      <trkpt lat="46.344457" lon="9.905686">
        <time>1970-01-01T00:00:00+00:00</time>
        <ele>2791.0</ele>
      </trkpt>
      <trkpt lat="46.34487" lon="9.90587">
        <time>1970-01-01T00:00:00+00:00</time>
        <ele>2806.0</ele>
      </trkpt>
      <trkpt lat="46.345098" lon="9.90621">
        <time>1970-01-01T00:00:00+00:00</time>
        <ele>2805.0</ele>
      </trkpt>
      <trkpt lat="46.345375" lon="9.906678">
        <time>1970-01-01T00:00:00+00:00</time>
        <ele>2809.0</ele>
      </trkpt>
      <trkpt lat="46.345507" lon="9.906859">
        <time>1970-01-01T00:00:00+00:00</time>
        <ele>2815.0</ele>
      </trkpt>
      <trkpt lat="46.345507" lon="9.907084">
        <time>1970-01-01T00:00:00+00:00</time>
        <ele>2814.0</ele>
      </trkpt>
      <trkpt lat="46.345435" lon="9.907233">
        <time>1970-01-01T00:00:00+00:00</time>
        <ele>2811.0</ele>
      </trkpt>
      <trkpt lat="46.345462" lon="9.907508">
        <time>1970-01-01T00:00:00+00:00</time>
        <ele>2819.0</ele>
      </trkpt>
      <trkpt lat="46.345519" lon="9.907788">
        <time>1970-01-01T00:00:00+00:00</time>
        <ele>2828.0</ele>
      </trkpt>
      <trkpt lat="46.345743" lon="9.907958">
        <time>1970-01-01T00:00:00+00:00</time>
        <ele>2837.0</ele>
      </trkpt>
      <trkpt lat="46.345819" lon="9.908156">
        <time>1970-01-01T00:00:00+00:00</time>
        <ele>2842.0</ele>
      </trkpt>
      <trkpt lat="46.345993" lon="9.908277">
        <time>1970-01-01T00:00:00+00:00</time>
        <ele>2846.0</ele>
      </trkpt>
      <trkpt lat="46.346095" lon="9.908387">
        <time>1970-01-01T00:00:00+00:00</time>
        <ele>2847.0</ele>
      </trkpt>
      <trkpt lat="46.346095" lon="9.908458">
        <time>1970-01-01T00:00:00+00:00</time>
        <ele>2847.0</ele>
      </trkpt>
      <trkpt lat="46.346471" lon="9.908871">
        <time>1970-01-01T00:00:00+00:00</time>
        <ele>2847.0</ele>
      </trkpt>
      <trkpt lat="46.346566" lon="9.909167">
        <time>1970-01-01T00:00:00+00:00</time>
        <ele>2846.0</ele>
      </trkpt>
      <trkpt lat="46.346748" lon="9.909316">
        <time>1970-01-01T00:00:00+00:00</time>
        <ele>2847.0</ele>
      </trkpt>
      <trkpt lat="46.34715" lon="9.909959">
        <time>1970-01-01T00:00:00+00:00</time>
        <ele>2856.0</ele>
      </trkpt>
      <trkpt lat="46.347226" lon="9.910135">
        <time>1970-01-01T00:00:00+00:00</time>
        <ele>2860.0</ele>
      </trkpt>
      <trkpt lat="46.347294" lon="9.910371">
        <time>1970-01-01T00:00:00+00:00</time>
        <ele>2864.0</ele>
      </trkpt>
      <trkpt lat="46.347537" lon="9.910602">
        <time>1970-01-01T00:00:00+00:00</time>
        <ele>2872.0</ele>
      </trkpt>
      <trkpt lat="46.347674" lon="9.911064">
        <time>1970-01-01T00:00:00+00:00</time>
        <ele>2884.0</ele>
      </trkpt>
      <trkpt lat="46.347681" lon="9.911185">
        <time>1970-01-01T00:00:00+00:00</time>
        <ele>2888.0</ele>
      </trkpt>
      <trkpt lat="46.34778" lon="9.911339">
        <time>1970-01-01T00:00:00+00:00</time>
        <ele>2898.0</ele>
      </trkpt>
      <trkpt lat="46.347864" lon="9.911569">
        <time>1970-01-01T00:00:00+00:00</time>
        <ele>2909.0</ele>
      </trkpt>
      <trkpt lat="46.347856" lon="9.911712">
        <time>1970-01-01T00:00:00+00:00</time>
        <ele>2913.0</ele>
      </trkpt>
      <trkpt lat="46.347913" lon="9.911762">
        <time>1970-01-01T00:00:00+00:00</time>
        <ele>2916.0</ele>
      </trkpt>
      <trkpt lat="46.347875" lon="9.911844">
        <time>1970-01-01T00:00:00+00:00</time>
        <ele>2918.0</ele>
      </trkpt>
      <trkpt lat="46.347928" lon="9.91191">
        <time>1970-01-01T00:00:00+00:00</time>
        <ele>2922.0</ele>
      </trkpt>
      <trkpt lat="46.34782" lon="9.912782">
        <time>1970-01-01T00:00:00+00:00</time>
        <ele>2945.0</ele>
      </trkpt>
      <trkpt lat="46.347657" lon="9.913019">
        <time>1970-01-01T00:00:00+00:00</time>
        <ele>2950.0</ele>
      </trkpt>
      <trkpt lat="46.347647" lon="9.913211">
        <time>1970-01-01T00:00:00+00:00</time>
        <ele>2954.0</ele>
      </trkpt>
      <trkpt lat="46.34784" lon="9.913581">
        <time>1970-01-01T00:00:00+00:00</time>
        <ele>2966.0</ele>
      </trkpt>
      <trkpt lat="46.348065" lon="9.913595">
        <time>1970-01-01T00:00:00+00:00</time>
        <ele>2979.0</ele>
      </trkpt>
      <trkpt lat="46.348065" lon="9.913876">
        <time>1970-01-01T00:00:00+00:00</time>
        <ele>2986.0</ele>
      </trkpt>
      <trkpt lat="46.348116" lon="9.914157">
        <time>1970-01-01T00:00:00+00:00</time>
        <ele>2993.0</ele>
      </trkpt>
      <trkpt lat="46.348463" lon="9.914409">
        <time>1970-01-01T00:00:00+00:00</time>
        <ele>3006.0</ele>
      </trkpt>
      <trkpt lat="46.348575" lon="9.91466">
        <time>1970-01-01T00:00:00+00:00</time>
        <ele>3011.0</ele>
      </trkpt>
      <trkpt lat="46.348483" lon="9.915133">
        <time>1970-01-01T00:00:00+00:00</time>
        <ele>3014.0</ele>
      </trkpt>
      <trkpt lat="46.348606" lon="9.91534">
        <time>1970-01-01T00:00:00+00:00</time>
        <ele>3017.0</ele>
      </trkpt>
      <trkpt lat="46.348483" lon="9.915547">
        <time>1970-01-01T00:00:00+00:00</time>
        <ele>3018.0</ele>
      </trkpt>
      <trkpt lat="46.348636" lon="9.916138">
        <time>1970-01-01T00:00:00+00:00</time>
        <ele>3026.0</ele>
      </trkpt>
      <trkpt lat="46.348749" lon="9.916863">
        <time>1970-01-01T00:00:00+00:00</time>
        <ele>3034.0</ele>
      </trkpt>
      <trkpt lat="46.348585" lon="9.917676">
        <time>1970-01-01T00:00:00+00:00</time>
        <ele>3050.0</ele>
      </trkpt>
      <trkpt lat="46.348371" lon="9.918134">
        <time>1970-01-01T00:00:00+00:00</time>
        <ele>3067.0</ele>
      </trkpt>
      <trkpt lat="46.348055" lon="9.918977">
        <time>1970-01-01T00:00:00+00:00</time>
        <ele>3087.0</ele>
      </trkpt>
      <trkpt lat="46.347565" lon="9.918903">
        <time>1970-01-01T00:00:00+00:00</time>
        <ele>3105.0</ele>
      </trkpt>
      <trkpt lat="46.346565" lon="9.918637">
        <time>1970-01-01T00:00:00+00:00</time>
        <ele>3125.0</ele>
      </trkpt>
      <trkpt lat="46.346105" lon="9.918637">
        <time>1970-01-01T00:00:00+00:00</time>
        <ele>3138.0</ele>
      </trkpt>
      <trkpt lat="46.345572" lon="9.919077">
        <time>1970-01-01T00:00:00+00:00</time>
        <ele>3143.0</ele>
      </trkpt>
      <trkpt lat="46.345572" lon="9.919077">
        <time>1970-01-01T00:00:00+00:00</time>
        <ele>3143.0</ele>
      </trkpt>
      <trkpt lat="46.346105" lon="9.918637">
        <time>1970-01-01T00:00:00+00:00</time>
        <ele>3138.0</ele>
      </trkpt>
      <trkpt lat="46.346565" lon="9.918637">
        <time>1970-01-01T00:00:00+00:00</time>
        <ele>3125.0</ele>
      </trkpt>
      <trkpt lat="46.347565" lon="9.918903">
        <time>1970-01-01T00:00:00+00:00</time>
        <ele>3105.0</ele>
      </trkpt>
      <trkpt lat="46.348055" lon="9.918977">
        <time>1970-01-01T00:00:00+00:00</time>
        <ele>3087.0</ele>
      </trkpt>
      <trkpt lat="46.348371" lon="9.918134">
        <time>1970-01-01T00:00:00+00:00</time>
        <ele>3067.0</ele>
      </trkpt>
      <trkpt lat="46.348585" lon="9.917676">
        <time>1970-01-01T00:00:00+00:00</time>
        <ele>3050.0</ele>
      </trkpt>
      <trkpt lat="46.348749" lon="9.916863">
        <time>1970-01-01T00:00:00+00:00</time>
        <ele>3034.0</ele>
      </trkpt>
      <trkpt lat="46.348636" lon="9.916138">
        <time>1970-01-01T00:00:00+00:00</time>
        <ele>3026.0</ele>
      </trkpt>
      <trkpt lat="46.348483" lon="9.915547">
        <time>1970-01-01T00:00:00+00:00</time>
        <ele>3018.0</ele>
      </trkpt>
      <trkpt lat="46.348606" lon="9.91534">
        <time>1970-01-01T00:00:00+00:00</time>
        <ele>3017.0</ele>
      </trkpt>
      <trkpt lat="46.348483" lon="9.915133">
        <time>1970-01-01T00:00:00+00:00</time>
        <ele>3014.0</ele>
      </trkpt>
      <trkpt lat="46.348575" lon="9.91466">
        <time>1970-01-01T00:00:00+00:00</time>
        <ele>3011.0</ele>
      </trkpt>
      <trkpt lat="46.348463" lon="9.914409">
        <time>1970-01-01T00:00:00+00:00</time>
        <ele>3006.0</ele>
      </trkpt>
      <trkpt lat="46.348116" lon="9.914157">
        <time>1970-01-01T00:00:00+00:00</time>
        <ele>2993.0</ele>
      </trkpt>
      <trkpt lat="46.348065" lon="9.913876">
        <time>1970-01-01T00:00:00+00:00</time>
        <ele>2986.0</ele>
      </trkpt>
      <trkpt lat="46.348065" lon="9.913595">
        <time>1970-01-01T00:00:00+00:00</time>
        <ele>2979.0</ele>
      </trkpt>
      <trkpt lat="46.34784" lon="9.913581">
        <time>1970-01-01T00:00:00+00:00</time>
        <ele>2966.0</ele>
      </trkpt>
      <trkpt lat="46.347647" lon="9.913211">
        <time>1970-01-01T00:00:00+00:00</time>
        <ele>2954.0</ele>
      </trkpt>
      <trkpt lat="46.347657" lon="9.913019">
        <time>1970-01-01T00:00:00+00:00</time>
        <ele>2950.0</ele>
      </trkpt>
      <trkpt lat="46.34782" lon="9.912782">
        <time>1970-01-01T00:00:00+00:00</time>
        <ele>2945.0</ele>
      </trkpt>
      <trkpt lat="46.347928" lon="9.91191">
        <time>1970-01-01T00:00:00+00:00</time>
        <ele>2922.0</ele>
      </trkpt>
      <trkpt lat="46.347875" lon="9.911844">
        <time>1970-01-01T00:00:00+00:00</time>
        <ele>2918.0</ele>
      </trkpt>
      <trkpt lat="46.347913" lon="9.911762">
        <time>1970-01-01T00:00:00+00:00</time>
        <ele>2916.0</ele>
      </trkpt>
      <trkpt lat="46.347856" lon="9.911712">
        <time>1970-01-01T00:00:00+00:00</time>
        <ele>2913.0</ele>
      </trkpt>
      <trkpt lat="46.347864" lon="9.911569">
        <time>1970-01-01T00:00:00+00:00</time>
        <ele>2909.0</ele>
      </trkpt>
      <trkpt lat="46.34778" lon="9.911339">
        <time>1970-01-01T00:00:00+00:00</time>
        <ele>2898.0</ele>
      </trkpt>
      <trkpt lat="46.347681" lon="9.911185">
        <time>1970-01-01T00:00:00+00:00</time>
        <ele>2888.0</ele>
      </trkpt>
      <trkpt lat="46.347674" lon="9.911064">
        <time>1970-01-01T00:00:00+00:00</time>
        <ele>2884.0</ele>
      </trkpt>
      <trkpt lat="46.347537" lon="9.910602">
        <time>1970-01-01T00:00:00+00:00</time>
        <ele>2872.0</ele>
      </trkpt>
      <trkpt lat="46.347294" lon="9.910371">
        <time>1970-01-01T00:00:00+00:00</time>
        <ele>2864.0</ele>
      </trkpt>
      <trkpt lat="46.347226" lon="9.910135">
        <time>1970-01-01T00:00:00+00:00</time>
        <ele>2860.0</ele>
      </trkpt>
      <trkpt lat="46.34715" lon="9.909959">
        <time>1970-01-01T00:00:00+00:00</time>
        <ele>2856.0</ele>
      </trkpt>
      <trkpt lat="46.346748" lon="9.909316">
        <time>1970-01-01T00:00:00+00:00</time>
        <ele>2847.0</ele>
      </trkpt>
      <trkpt lat="46.346566" lon="9.909167">
        <time>1970-01-01T00:00:00+00:00</time>
        <ele>2846.0</ele>
      </trkpt>
      <trkpt lat="46.346471" lon="9.908871">
        <time>1970-01-01T00:00:00+00:00</time>
        <ele>2847.0</ele>
      </trkpt>
      <trkpt lat="46.346095" lon="9.908458">
        <time>1970-01-01T00:00:00+00:00</time>
        <ele>2847.0</ele>
      </trkpt>
      <trkpt lat="46.346095" lon="9.908387">
        <time>1970-01-01T00:00:00+00:00</time>
        <ele>2847.0</ele>
      </trkpt>
      <trkpt lat="46.345993" lon="9.908277">
        <time>1970-01-01T00:00:00+00:00</time>
        <ele>2846.0</ele>
      </trkpt>
      <trkpt lat="46.345819" lon="9.908156">
        <time>1970-01-01T00:00:00+00:00</time>
        <ele>2842.0</ele>
      </trkpt>
      <trkpt lat="46.345743" lon="9.907958">
        <time>1970-01-01T00:00:00+00:00</time>
        <ele>2837.0</ele>
      </trkpt>
      <trkpt lat="46.345519" lon="9.907788">
        <time>1970-01-01T00:00:00+00:00</time>
        <ele>2828.0</ele>
      </trkpt>
      <trkpt lat="46.345462" lon="9.907508">
        <time>1970-01-01T00:00:00+00:00</time>
        <ele>2819.0</ele>
      </trkpt>
      <trkpt lat="46.345435" lon="9.907233">
        <time>1970-01-01T00:00:00+00:00</time>
        <ele>2811.0</ele>
      </trkpt>
      <trkpt lat="46.345507" lon="9.907084">
        <time>1970-01-01T00:00:00+00:00</time>
        <ele>2814.0</ele>
      </trkpt>
      <trkpt lat="46.345507" lon="9.906859">
        <time>1970-01-01T00:00:00+00:00</time>
        <ele>2815.0</ele>
      </trkpt>
      <trkpt lat="46.345375" lon="9.906678">
        <time>1970-01-01T00:00:00+00:00</time>
        <ele>2809.0</ele>
      </trkpt>
      <trkpt lat="46.345098" lon="9.90621">
        <time>1970-01-01T00:00:00+00:00</time>
        <ele>2805.0</ele>
      </trkpt>
      <trkpt lat="46.34487" lon="9.90587">
        <time>1970-01-01T00:00:00+00:00</time>
        <ele>2806.0</ele>
      </trkpt>
      <trkpt lat="46.344457" lon="9.905686">
        <time>1970-01-01T00:00:00+00:00</time>
        <ele>2791.0</ele>
      </trkpt>
      <trkpt lat="46.344385" lon="9.905835">
        <time>1970-01-01T00:00:00+00:00</time>
        <ele>2790.0</ele>
      </trkpt>
      <trkpt lat="46.344287" lon="9.905964">
        <time>1970-01-01T00:00:00+00:00</time>
        <ele>2787.0</ele>
      </trkpt>
      <trkpt lat="46.344274" lon="9.906033">
        <time>1970-01-01T00:00:00+00:00</time>
        <ele>2788.0</ele>
      </trkpt>
      <trkpt lat="46.344243" lon="9.906071">
        <time>1970-01-01T00:00:00+00:00</time>
        <ele>2787.0</ele>
      </trkpt>
      <trkpt lat="46.34423" lon="9.906253">
        <time>1970-01-01T00:00:00+00:00</time>
        <ele>2790.0</ele>
      </trkpt>
      <trkpt lat="46.344145" lon="9.906468">
        <time>1970-01-01T00:00:00+00:00</time>
        <ele>2786.0</ele>
      </trkpt>
      <trkpt lat="46.344143" lon="9.906543">
        <time>1970-01-01T00:00:00+00:00</time>
        <ele>2784.0</ele>
      </trkpt>
      <trkpt lat="46.344097" lon="9.906717">
        <time>1970-01-01T00:00:00+00:00</time>
        <ele>2778.0</ele>
      </trkpt>
      <trkpt lat="46.344034" lon="9.906712">
        <time>1970-01-01T00:00:00+00:00</time>
        <ele>2775.0</ele>
      </trkpt>
      <trkpt lat="46.34398" lon="9.906755">
        <time>1970-01-01T00:00:00+00:00</time>
        <ele>2771.0</ele>
      </trkpt>
      <trkpt lat="46.344041" lon="9.906852">
        <time>1970-01-01T00:00:00+00:00</time>
        <ele>2772.0</ele>
      </trkpt>
      <trkpt lat="46.34405" lon="9.906938">
        <time>1970-01-01T00:00:00+00:00</time>
        <ele>2770.0</ele>
      </trkpt>
      <trkpt lat="46.343973" lon="9.906932">
        <time>1970-01-01T00:00:00+00:00</time>
        <ele>2768.0</ele>
      </trkpt>
      <trkpt lat="46.34392" lon="9.906971">
        <time>1970-01-01T00:00:00+00:00</time>
        <ele>2766.0</ele>
      </trkpt>
      <trkpt lat="46.343945" lon="9.907039">
        <time>1970-01-01T00:00:00+00:00</time>
        <ele>2765.0</ele>
      </trkpt>
      <trkpt lat="46.343947" lon="9.907104">
        <time>1970-01-01T00:00:00+00:00</time>
        <ele>2765.0</ele>
      </trkpt>
      <trkpt lat="46.343908" lon="9.907101">
        <time>1970-01-01T00:00:00+00:00</time>
        <ele>2764.0</ele>
      </trkpt>
      <trkpt lat="46.343888" lon="9.907122">
        <time>1970-01-01T00:00:00+00:00</time>
        <ele>2762.0</ele>
      </trkpt>
      <trkpt lat="46.343905" lon="9.907201">
        <time>1970-01-01T00:00:00+00:00</time>
        <ele>2762.0</ele>
      </trkpt>
      <trkpt lat="46.343886" lon="9.907219">
        <time>1970-01-01T00:00:00+00:00</time>
        <ele>2761.0</ele>
      </trkpt>
      <trkpt lat="46.343836" lon="9.907195">
        <time>1970-01-01T00:00:00+00:00</time>
        <ele>2756.0</ele>
      </trkpt>
      <trkpt lat="46.343828" lon="9.907286">
        <time>1970-01-01T00:00:00+00:00</time>
        <ele>2755.0</ele>
      </trkpt>
      <trkpt lat="46.343799" lon="9.907342">
        <time>1970-01-01T00:00:00+00:00</time>
        <ele>2752.0</ele>
      </trkpt>
      <trkpt lat="46.343806" lon="9.907415">
        <time>1970-01-01T00:00:00+00:00</time>
        <ele>2751.0</ele>
      </trkpt>
      <trkpt lat="46.343845" lon="9.907525">
        <time>1970-01-01T00:00:00+00:00</time>
        <ele>2753.0</ele>
      </trkpt>
      <trkpt lat="46.343824" lon="9.907614">
        <time>1970-01-01T00:00:00+00:00</time>
        <ele>2750.0</ele>
      </trkpt>
      <trkpt lat="46.343774" lon="9.907556">
        <time>1970-01-01T00:00:00+00:00</time>
        <ele>2747.0</ele>
      </trkpt>
      <trkpt lat="46.343745" lon="9.907608">
        <time>1970-01-01T00:00:00+00:00</time>
        <ele>2745.0</ele>
      </trkpt>
      <trkpt lat="46.343804" lon="9.907774">
        <time>1970-01-01T00:00:00+00:00</time>
        <ele>2747.0</ele>
      </trkpt>
      <trkpt lat="46.343787" lon="9.907833">
        <time>1970-01-01T00:00:00+00:00</time>
        <ele>2745.0</ele>
      </trkpt>
      <trkpt lat="46.343747" lon="9.907874">
        <time>1970-01-01T00:00:00+00:00</time>
        <ele>2742.0</ele>
      </trkpt>
      <trkpt lat="46.343713" lon="9.907951">
        <time>1970-01-01T00:00:00+00:00</time>
        <ele>2740.0</ele>
      </trkpt>
      <trkpt lat="46.343699" lon="9.908061">
        <time>1970-01-01T00:00:00+00:00</time>
        <ele>2737.0</ele>
      </trkpt>
      <trkpt lat="46.343712" lon="9.908163">
        <time>1970-01-01T00:00:00+00:00</time>
        <ele>2737.0</ele>
      </trkpt>
      <trkpt lat="46.343658" lon="9.908434">
        <time>1970-01-01T00:00:00+00:00</time>
        <ele>2729.0</ele>
      </trkpt>
      <trkpt lat="46.343669" lon="9.908558">
        <time>1970-01-01T00:00:00+00:00</time>
        <ele>2729.0</ele>
      </trkpt>
      <trkpt lat="46.343706" lon="9.908713">
        <time>1970-01-01T00:00:00+00:00</time>
        <ele>2731.0</ele>
      </trkpt>
      <trkpt lat="46.343773" lon="9.908896">
        <time>1970-01-01T00:00:00+00:00</time>
        <ele>2732.0</ele>
      </trkpt>
      <trkpt lat="46.343778" lon="9.908995">
        <time>1970-01-01T00:00:00+00:00</time>
        <ele>2730.0</ele>
      </trkpt>
      <trkpt lat="46.343738" lon="9.909231">
        <time>1970-01-01T00:00:00+00:00</time>
        <ele>2723.0</ele>
      </trkpt>
      <trkpt lat="46.343787" lon="9.909469">
        <time>1970-01-01T00:00:00+00:00</time>
        <ele>2722.0</ele>
      </trkpt>
      <trkpt lat="46.343845" lon="9.909747">
        <time>1970-01-01T00:00:00+00:00</time>
        <ele>2721.0</ele>
      </trkpt>
      <trkpt lat="46.34385" lon="9.909878">
        <time>1970-01-01T00:00:00+00:00</time>
        <ele>2718.0</ele>
      </trkpt>
      <trkpt lat="46.343818" lon="9.909892">
        <time>1970-01-01T00:00:00+00:00</time>
        <ele>2715.0</ele>
      </trkpt>
      <trkpt lat="46.343816" lon="9.909951">
        <time>1970-01-01T00:00:00+00:00</time>
        <ele>2714.0</ele>
      </trkpt>
      <trkpt lat="46.343859" lon="9.910074">
        <time>1970-01-01T00:00:00+00:00</time>
        <ele>2713.0</ele>
      </trkpt>
      <trkpt lat="46.343848" lon="9.910103">
        <time>1970-01-01T00:00:00+00:00</time>
        <ele>2711.0</ele>
      </trkpt>
      <trkpt lat="46.343742" lon="9.910063">
        <time>1970-01-01T00:00:00+00:00</time>
        <ele>2706.0</ele>
      </trkpt>
      <trkpt lat="46.343679" lon="9.909998">
        <time>1970-01-01T00:00:00+00:00</time>
        <ele>2704.0</ele>
      </trkpt>
      <trkpt lat="46.343661" lon="9.91003">
        <time>1970-01-01T00:00:00+00:00</time>
        <ele>2702.0</ele>
      </trkpt>
      <trkpt lat="46.343639" lon="9.910242">
        <time>1970-01-01T00:00:00+00:00</time>
        <ele>2697.0</ele>
      </trkpt>
      <trkpt lat="46.343613" lon="9.910315">
        <time>1970-01-01T00:00:00+00:00</time>
        <ele>2695.0</ele>
      </trkpt>
      <trkpt lat="46.343577" lon="9.910292">
        <time>1970-01-01T00:00:00+00:00</time>
        <ele>2693.0</ele>
      </trkpt>
      <trkpt lat="46.343487" lon="9.910085">
        <time>1970-01-01T00:00:00+00:00</time>
        <ele>2692.0</ele>
      </trkpt>
      <trkpt lat="46.343454" lon="9.910073">
        <time>1970-01-01T00:00:00+00:00</time>
        <ele>2690.0</ele>
      </trkpt>
      <trkpt lat="46.343428" lon="9.910105">
        <time>1970-01-01T00:00:00+00:00</time>
        <ele>2689.0</ele>
      </trkpt>
      <trkpt lat="46.34339" lon="9.910108">
        <time>1970-01-01T00:00:00+00:00</time>
        <ele>2687.0</ele>
      </trkpt>
      <trkpt lat="46.343124" lon="9.909577">
        <time>1970-01-01T00:00:00+00:00</time>
        <ele>2676.0</ele>
      </trkpt>
      <trkpt lat="46.343034" lon="9.909476">
        <time>1970-01-01T00:00:00+00:00</time>
        <ele>2673.0</ele>
      </trkpt>
      <trkpt lat="46.342967" lon="9.90935">
        <time>1970-01-01T00:00:00+00:00</time>
        <ele>2669.0</ele>
      </trkpt>
      <trkpt lat="46.342779" lon="9.908814">
        <time>1970-01-01T00:00:00+00:00</time>
        <ele>2661.0</ele>
      </trkpt>
      <trkpt lat="46.342742" lon="9.908684">
        <time>1970-01-01T00:00:00+00:00</time>
        <ele>2660.0</ele>
      </trkpt>
      <trkpt lat="46.342722" lon="9.908126">
        <time>1970-01-01T00:00:00+00:00</time>
        <ele>2653.0</ele>
      </trkpt>
      <trkpt lat="46.342681" lon="9.908008">
        <time>1970-01-01T00:00:00+00:00</time>
        <ele>2650.0</ele>
      </trkpt>
      <trkpt lat="46.342673" lon="9.907867">
        <time>1970-01-01T00:00:00+00:00</time>
        <ele>2648.0</ele>
      </trkpt>
      <trkpt lat="46.342605" lon="9.907748">
        <time>1970-01-01T00:00:00+00:00</time>
        <ele>2645.0</ele>
      </trkpt>
      <trkpt lat="46.342606" lon="9.907613">
        <time>1970-01-01T00:00:00+00:00</time>
        <ele>2643.0</ele>
      </trkpt>
      <trkpt lat="46.342555" lon="9.907457">
        <time>1970-01-01T00:00:00+00:00</time>
        <ele>2641.0</ele>
      </trkpt>
      <trkpt lat="46.342495" lon="9.907103">
        <time>1970-01-01T00:00:00+00:00</time>
        <ele>2635.0</ele>
      </trkpt>
      <trkpt lat="46.342505" lon="9.90703">
        <time>1970-01-01T00:00:00+00:00</time>
        <ele>2635.0</ele>
      </trkpt>
      <trkpt lat="46.342322" lon="9.906697">
        <time>1970-01-01T00:00:00+00:00</time>
        <ele>2626.0</ele>
      </trkpt>
      <trkpt lat="46.342265" lon="9.906538">
        <time>1970-01-01T00:00:00+00:00</time>
        <ele>2622.0</ele>
      </trkpt>
      <trkpt lat="46.342118" lon="9.906332">
        <time>1970-01-01T00:00:00+00:00</time>
        <ele>2615.0</ele>
      </trkpt>
      <trkpt lat="46.342048" lon="9.906297">
        <time>1970-01-01T00:00:00+00:00</time>
        <ele>2612.0</ele>
      </trkpt>
      <trkpt lat="46.341995" lon="9.90631">
        <time>1970-01-01T00:00:00+00:00</time>
        <ele>2611.0</ele>
      </trkpt>
      <trkpt lat="46.341914" lon="9.906403">
        <time>1970-01-01T00:00:00+00:00</time>
        <ele>2610.0</ele>
      </trkpt>
      <trkpt lat="46.341846" lon="9.906579">
        <time>1970-01-01T00:00:00+00:00</time>
        <ele>2611.0</ele>
      </trkpt>
      <trkpt lat="46.341623" lon="9.906809">
        <time>1970-01-01T00:00:00+00:00</time>
        <ele>2607.0</ele>
      </trkpt>
      <trkpt lat="46.341548" lon="9.906817">
        <time>1970-01-01T00:00:00+00:00</time>
        <ele>2606.0</ele>
      </trkpt>
      <trkpt lat="46.341432" lon="9.906793">
        <time>1970-01-01T00:00:00+00:00</time>
        <ele>2605.0</ele>
      </trkpt>
      <trkpt lat="46.341349" lon="9.906618">
        <time>1970-01-01T00:00:00+00:00</time>
        <ele>2603.0</ele>
      </trkpt>
      <trkpt lat="46.341268" lon="9.906249">
        <time>1970-01-01T00:00:00+00:00</time>
        <ele>2600.0</ele>
      </trkpt>
      <trkpt lat="46.341179" lon="9.905999">
        <time>1970-01-01T00:00:00+00:00</time>
        <ele>2599.0</ele>
      </trkpt>
      <trkpt lat="46.340909" lon="9.905719">
        <time>1970-01-01T00:00:00+00:00</time>
        <ele>2599.0</ele>
      </trkpt>
      <trkpt lat="46.340871" lon="9.905656">
        <time>1970-01-01T00:00:00+00:00</time>
        <ele>2599.0</ele>
      </trkpt>
      <trkpt lat="46.340805" lon="9.905416">
        <time>1970-01-01T00:00:00+00:00</time>
        <ele>2598.0</ele>
      </trkpt>
      <trkpt lat="46.340744" lon="9.905339">
        <time>1970-01-01T00:00:00+00:00</time>
        <ele>2599.0</ele>
      </trkpt>
      <trkpt lat="46.340702" lon="9.905236">
        <time>1970-01-01T00:00:00+00:00</time>
        <ele>2598.0</ele>
      </trkpt>
      <trkpt lat="46.340606" lon="9.905157">
        <time>1970-01-01T00:00:00+00:00</time>
        <ele>2599.0</ele>
      </trkpt>
      <trkpt lat="46.340563" lon="9.905042">
        <time>1970-01-01T00:00:00+00:00</time>
        <ele>2598.0</ele>
      </trkpt>
      <trkpt lat="46.340553" lon="9.904704">
        <time>1970-01-01T00:00:00+00:00</time>
        <ele>2598.0</ele>
      </trkpt>
      <trkpt lat="46.340463" lon="9.904289">
        <time>1970-01-01T00:00:00+00:00</time>
        <ele>2599.0</ele>
      </trkpt>
      <trkpt lat="46.340504" lon="9.904017">
        <time>1970-01-01T00:00:00+00:00</time>
        <ele>2601.0</ele>
      </trkpt>
      <trkpt lat="46.340484" lon="9.903726">
        <time>1970-01-01T00:00:00+00:00</time>
        <ele>2603.0</ele>
      </trkpt>
      <trkpt lat="46.340533" lon="9.903042">
        <time>1970-01-01T00:00:00+00:00</time>
        <ele>2608.0</ele>
      </trkpt>
      <trkpt lat="46.340443" lon="9.90281">
        <time>1970-01-01T00:00:00+00:00</time>
        <ele>2609.0</ele>
      </trkpt>
      <trkpt lat="46.340202" lon="9.902839">
        <time>1970-01-01T00:00:00+00:00</time>
        <ele>2609.0</ele>
      </trkpt>
      <trkpt lat="46.33981" lon="9.902726">
        <time>1970-01-01T00:00:00+00:00</time>
        <ele>2610.0</ele>
      </trkpt>
      <trkpt lat="46.339343" lon="9.902383">
        <time>1970-01-01T00:00:00+00:00</time>
        <ele>2611.0</ele>
      </trkpt>
      <trkpt lat="46.33881" lon="9.902233">
        <time>1970-01-01T00:00:00+00:00</time>
        <ele>2615.0</ele>
      </trkpt>
      <trkpt lat="46.338306" lon="9.902576">
        <time>1970-01-01T00:00:00+00:00</time>
        <ele>2630.0</ele>
      </trkpt>
      <trkpt lat="46.337343" lon="9.901965">
        <time>1970-01-01T00:00:00+00:00</time>
        <ele>2677.0</ele>
      </trkpt>
      <trkpt lat="46.33718" lon="9.901632">
        <time>1970-01-01T00:00:00+00:00</time>
        <ele>2689.0</ele>
      </trkpt>
      <trkpt lat="46.337136" lon="9.901321">
        <time>1970-01-01T00:00:00+00:00</time>
        <ele>2701.0</ele>
      </trkpt>
      <trkpt lat="46.337306" lon="9.901192">
        <time>1970-01-01T00:00:00+00:00</time>
        <ele>2699.0</ele>
      </trkpt>
      <trkpt lat="46.337455" lon="9.900817">
        <time>1970-01-01T00:00:00+00:00</time>
        <ele>2703.0</ele>
      </trkpt>
      <trkpt lat="46.33704" lon="9.900892">
        <time>1970-01-01T00:00:00+00:00</time>
        <ele>2715.0</ele>
      </trkpt>
      <trkpt lat="46.336943" lon="9.900892">
        <time>1970-01-01T00:00:00+00:00</time>
        <ele>2719.0</ele>
      </trkpt>
      <trkpt lat="46.336813" lon="9.900785">
        <time>1970-01-01T00:00:00+00:00</time>
        <ele>2724.0</ele>
      </trkpt>
      <trkpt lat="46.336737" lon="9.900664">
        <time>1970-01-01T00:00:00+00:00</time>
        <ele>2724.0</ele>
      </trkpt>
      <trkpt lat="46.336661" lon="9.900655">
        <time>1970-01-01T00:00:00+00:00</time>
        <ele>2726.0</ele>
      </trkpt>
      <trkpt lat="46.336399" lon="9.900714">
        <time>1970-01-01T00:00:00+00:00</time>
        <ele>2735.0</ele>
      </trkpt>
      <trkpt lat="46.336294" lon="9.900716">
        <time>1970-01-01T00:00:00+00:00</time>
        <ele>2739.0</ele>
      </trkpt>
      <trkpt lat="46.336172" lon="9.900608">
        <time>1970-01-01T00:00:00+00:00</time>
        <ele>2737.0</ele>
      </trkpt>
      <trkpt lat="46.335989" lon="9.900587">
        <time>1970-01-01T00:00:00+00:00</time>
        <ele>2737.0</ele>
      </trkpt>
      <trkpt lat="46.33568" lon="9.900397">
        <time>1970-01-01T00:00:00+00:00</time>
        <ele>2715.0</ele>
      </trkpt>
      <trkpt lat="46.335294" lon="9.900503">
        <time>1970-01-01T00:00:00+00:00</time>
        <ele>2709.0</ele>
      </trkpt>
      <trkpt lat="46.335132" lon="9.900574">
        <time>1970-01-01T00:00:00+00:00</time>
        <ele>2708.0</ele>
      </trkpt>
      <trkpt lat="46.334835" lon="9.900764">
        <time>1970-01-01T00:00:00+00:00</time>
        <ele>2707.0</ele>
      </trkpt>
      <trkpt lat="46.334808" lon="9.900874">
        <time>1970-01-01T00:00:00+00:00</time>
        <ele>2710.0</ele>
      </trkpt>
      <trkpt lat="46.33471" lon="9.901012">
        <time>1970-01-01T00:00:00+00:00</time>
        <ele>2711.0</ele>
      </trkpt>
      <trkpt lat="46.334508" lon="9.901139">
        <time>1970-01-01T00:00:00+00:00</time>
        <ele>2708.0</ele>
      </trkpt>
      <trkpt lat="46.334328" lon="9.901328">
        <time>1970-01-01T00:00:00+00:00</time>
        <ele>2710.0</ele>
      </trkpt>
      <trkpt lat="46.333886" lon="9.901576">
        <time>1970-01-01T00:00:00+00:00</time>
        <ele>2704.0</ele>
      </trkpt>
      <trkpt lat="46.333701" lon="9.90162">
        <time>1970-01-01T00:00:00+00:00</time>
        <ele>2702.0</ele>
      </trkpt>
      <trkpt lat="46.333041" lon="9.901585">
        <time>1970-01-01T00:00:00+00:00</time>
        <ele>2699.0</ele>
      </trkpt>
      <trkpt lat="46.332655" lon="9.901533">
        <time>1970-01-01T00:00:00+00:00</time>
        <ele>2699.0</ele>
      </trkpt>
      <trkpt lat="46.332605" lon="9.901476">
        <time>1970-01-01T00:00:00+00:00</time>
        <ele>2696.0</ele>
      </trkpt>
      <trkpt lat="46.332277" lon="9.901416">
        <time>1970-01-01T00:00:00+00:00</time>
        <ele>2690.0</ele>
      </trkpt>
      <trkpt lat="46.332182" lon="9.901418">
        <time>1970-01-01T00:00:00+00:00</time>
        <ele>2689.0</ele>
      </trkpt>
      <trkpt lat="46.332091" lon="9.901381">
        <time>1970-01-01T00:00:00+00:00</time>
        <ele>2687.0</ele>
      </trkpt>
      <trkpt lat="46.331896" lon="9.901383">
        <time>1970-01-01T00:00:00+00:00</time>
        <ele>2687.0</ele>
      </trkpt>
      <trkpt lat="46.331763" lon="9.901353">
        <time>1970-01-01T00:00:00+00:00</time>
        <ele>2686.0</ele>
      </trkpt>
      <trkpt lat="46.331575" lon="9.901395">
        <time>1970-01-01T00:00:00+00:00</time>
        <ele>2686.0</ele>
      </trkpt>
      <trkpt lat="46.331225" lon="9.901331">
        <time>1970-01-01T00:00:00+00:00</time>
        <ele>2677.0</ele>
      </trkpt>
      <trkpt lat="46.331007" lon="9.901358">
        <time>1970-01-01T00:00:00+00:00</time>
        <ele>2675.0</ele>
      </trkpt>
      <trkpt lat="46.330515" lon="9.901254">
        <time>1970-01-01T00:00:00+00:00</time>
        <ele>2659.0</ele>
      </trkpt>
      <trkpt lat="46.330498" lon="9.901282">
        <time>1970-01-01T00:00:00+00:00</time>
        <ele>2658.0</ele>
      </trkpt>
      <trkpt lat="46.330391" lon="9.901241">
        <time>1970-01-01T00:00:00+00:00</time>
        <ele>2656.0</ele>
      </trkpt>
      <trkpt lat="46.330381" lon="9.901291">
        <time>1970-01-01T00:00:00+00:00</time>
        <ele>2655.0</ele>
      </trkpt>
      <trkpt lat="46.330401" lon="9.901385">
        <time>1970-01-01T00:00:00+00:00</time>
        <ele>2653.0</ele>
      </trkpt>
      <trkpt lat="46.330369" lon="9.901437">
        <time>1970-01-01T00:00:00+00:00</time>
        <ele>2651.0</ele>
      </trkpt>
      <trkpt lat="46.330364" lon="9.901522">
        <time>1970-01-01T00:00:00+00:00</time>
        <ele>2649.0</ele>
      </trkpt>
      <trkpt lat="46.330342" lon="9.901558">
        <time>1970-01-01T00:00:00+00:00</time>
        <ele>2647.0</ele>
      </trkpt>
      <trkpt lat="46.330145" lon="9.901703">
        <time>1970-01-01T00:00:00+00:00</time>
        <ele>2637.0</ele>
      </trkpt>
      <trkpt lat="46.330029" lon="9.901869">
        <time>1970-01-01T00:00:00+00:00</time>
        <ele>2630.0</ele>
      </trkpt>
      <trkpt lat="46.330048" lon="9.902242">
        <time>1970-01-01T00:00:00+00:00</time>
        <ele>2619.0</ele>
      </trkpt>
      <trkpt lat="46.330021" lon="9.902278">
        <time>1970-01-01T00:00:00+00:00</time>
        <ele>2617.0</ele>
      </trkpt>
      <trkpt lat="46.329919" lon="9.90224">
        <time>1970-01-01T00:00:00+00:00</time>
        <ele>2615.0</ele>
      </trkpt>
      <trkpt lat="46.329701" lon="9.902071">
        <time>1970-01-01T00:00:00+00:00</time>
        <ele>2611.0</ele>
      </trkpt>
      <trkpt lat="46.329465" lon="9.901851">
        <time>1970-01-01T00:00:00+00:00</time>
        <ele>2612.0</ele>
      </trkpt>
      <trkpt lat="46.329432" lon="9.901861">
        <time>1970-01-01T00:00:00+00:00</time>
        <ele>2611.0</ele>
      </trkpt>
      <trkpt lat="46.32943" lon="9.901908">
        <time>1970-01-01T00:00:00+00:00</time>
        <ele>2609.0</ele>
      </trkpt>
      <trkpt lat="46.329548" lon="9.902325">
        <time>1970-01-01T00:00:00+00:00</time>
        <ele>2594.0</ele>
      </trkpt>
      <trkpt lat="46.329535" lon="9.902368">
        <time>1970-01-01T00:00:00+00:00</time>
        <ele>2592.0</ele>
      </trkpt>
      <trkpt lat="46.329447" lon="9.902315">
        <time>1970-01-01T00:00:00+00:00</time>
        <ele>2591.0</ele>
      </trkpt>
      <trkpt lat="46.329327" lon="9.902275">
        <time>1970-01-01T00:00:00+00:00</time>
        <ele>2589.0</ele>
      </trkpt>
      <trkpt lat="46.329286" lon="9.902281">
        <time>1970-01-01T00:00:00+00:00</time>
        <ele>2587.0</ele>
      </trkpt>
      <trkpt lat="46.329276" lon="9.902341">
        <time>1970-01-01T00:00:00+00:00</time>
        <ele>2584.0</ele>
      </trkpt>
      <trkpt lat="46.329339" lon="9.902558">
        <time>1970-01-01T00:00:00+00:00</time>
        <ele>2582.0</ele>
      </trkpt>
      <trkpt lat="46.329327" lon="9.902586">
        <time>1970-01-01T00:00:00+00:00</time>
        <ele>2581.0</ele>
      </trkpt>
      <trkpt lat="46.329233" lon="9.902553">
        <time>1970-01-01T00:00:00+00:00</time>
        <ele>2579.0</ele>
      </trkpt>
      <trkpt lat="46.328991" lon="9.902637">
        <time>1970-01-01T00:00:00+00:00</time>
        <ele>2574.0</ele>
      </trkpt>
      <trkpt lat="46.328854" lon="9.902775">
        <time>1970-01-01T00:00:00+00:00</time>
        <ele>2568.0</ele>
      </trkpt>
      <trkpt lat="46.328758" lon="9.902833">
        <time>1970-01-01T00:00:00+00:00</time>
        <ele>2565.0</ele>
      </trkpt>
      <trkpt lat="46.328741" lon="9.902879">
        <time>1970-01-01T00:00:00+00:00</time>
        <ele>2563.0</ele>
      </trkpt>
      <trkpt lat="46.328748" lon="9.902968">
        <time>1970-01-01T00:00:00+00:00</time>
        <ele>2562.0</ele>
      </trkpt>
      <trkpt lat="46.328736" lon="9.903002">
        <time>1970-01-01T00:00:00+00:00</time>
        <ele>2561.0</ele>
      </trkpt>
      <trkpt lat="46.328657" lon="9.903005">
        <time>1970-01-01T00:00:00+00:00</time>
        <ele>2559.0</ele>
      </trkpt>
      <trkpt lat="46.3286" lon="9.902982">
        <time>1970-01-01T00:00:00+00:00</time>
        <ele>2557.0</ele>
      </trkpt>
      <trkpt lat="46.328576" lon="9.902987">
        <time>1970-01-01T00:00:00+00:00</time>
        <ele>2557.0</ele>
      </trkpt>
      <trkpt lat="46.328552" lon="9.903021">
        <time>1970-01-01T00:00:00+00:00</time>
        <ele>2555.0</ele>
      </trkpt>
      <trkpt lat="46.32855" lon="9.903073">
        <time>1970-01-01T00:00:00+00:00</time>
        <ele>2554.0</ele>
      </trkpt>
      <trkpt lat="46.328583" lon="9.903249">
        <time>1970-01-01T00:00:00+00:00</time>
        <ele>2554.0</ele>
      </trkpt>
      <trkpt lat="46.328565" lon="9.903297">
        <time>1970-01-01T00:00:00+00:00</time>
        <ele>2553.0</ele>
      </trkpt>
      <trkpt lat="46.328497" lon="9.903358">
        <time>1970-01-01T00:00:00+00:00</time>
        <ele>2552.0</ele>
      </trkpt>
      <trkpt lat="46.328392" lon="9.903518">
        <time>1970-01-01T00:00:00+00:00</time>
        <ele>2547.0</ele>
      </trkpt>
      <trkpt lat="46.328353" lon="9.903632">
        <time>1970-01-01T00:00:00+00:00</time>
        <ele>2544.0</ele>
      </trkpt>
      <trkpt lat="46.328296" lon="9.904246">
        <time>1970-01-01T00:00:00+00:00</time>
        <ele>2533.0</ele>
      </trkpt>
      <trkpt lat="46.328279" lon="9.904269">
        <time>1970-01-01T00:00:00+00:00</time>
        <ele>2532.0</ele>
      </trkpt>
      <trkpt lat="46.328254" lon="9.904264">
        <time>1970-01-01T00:00:00+00:00</time>
        <ele>2531.0</ele>
      </trkpt>
      <trkpt lat="46.328165" lon="9.904168">
        <time>1970-01-01T00:00:00+00:00</time>
        <ele>2528.0</ele>
      </trkpt>
      <trkpt lat="46.328117" lon="9.904136">
        <time>1970-01-01T00:00:00+00:00</time>
        <ele>2525.0</ele>
      </trkpt>
      <trkpt lat="46.328097" lon="9.904156">
        <time>1970-01-01T00:00:00+00:00</time>
        <ele>2524.0</ele>
      </trkpt>
      <trkpt lat="46.328118" lon="9.904324">
        <time>1970-01-01T00:00:00+00:00</time>
        <ele>2522.0</ele>
      </trkpt>
      <trkpt lat="46.32818" lon="9.904433">
        <time>1970-01-01T00:00:00+00:00</time>
        <ele>2523.0</ele>
      </trkpt>
      <trkpt lat="46.328184" lon="9.90447">
        <time>1970-01-01T00:00:00+00:00</time>
        <ele>2523.0</ele>
      </trkpt>
      <trkpt lat="46.328101" lon="9.904436">
        <time>1970-01-01T00:00:00+00:00</time>
        <ele>2519.0</ele>
      </trkpt>
      <trkpt lat="46.327901" lon="9.904255">
        <time>1970-01-01T00:00:00+00:00</time>
        <ele>2515.0</ele>
      </trkpt>
      <trkpt lat="46.327856" lon="9.904244">
        <time>1970-01-01T00:00:00+00:00</time>
        <ele>2512.0</ele>
      </trkpt>
      <trkpt lat="46.327863" lon="9.904328">
        <time>1970-01-01T00:00:00+00:00</time>
        <ele>2510.0</ele>
      </trkpt>
      <trkpt lat="46.32793" lon="9.904547">
        <time>1970-01-01T00:00:00+00:00</time>
        <ele>2508.0</ele>
      </trkpt>
      <trkpt lat="46.327877" lon="9.904534">
        <time>1970-01-01T00:00:00+00:00</time>
        <ele>2506.0</ele>
      </trkpt>
      <trkpt lat="46.327797" lon="9.904466">
        <time>1970-01-01T00:00:00+00:00</time>
        <ele>2503.0</ele>
      </trkpt>
      <trkpt lat="46.327523" lon="9.904149">
        <time>1970-01-01T00:00:00+00:00</time>
        <ele>2491.0</ele>
      </trkpt>
      <trkpt lat="46.327475" lon="9.904133">
        <time>1970-01-01T00:00:00+00:00</time>
        <ele>2490.0</ele>
      </trkpt>
      <trkpt lat="46.327465" lon="9.904173">
        <time>1970-01-01T00:00:00+00:00</time>
        <ele>2489.0</ele>
      </trkpt>
      <trkpt lat="46.327513" lon="9.904569">
        <time>1970-01-01T00:00:00+00:00</time>
        <ele>2483.0</ele>
      </trkpt>
      <trkpt lat="46.327518" lon="9.904722">
        <time>1970-01-01T00:00:00+00:00</time>
        <ele>2480.0</ele>
      </trkpt>
      <trkpt lat="46.327498" lon="9.904749">
        <time>1970-01-01T00:00:00+00:00</time>
        <ele>2479.0</ele>
      </trkpt>
      <trkpt lat="46.327255" lon="9.904425">
        <time>1970-01-01T00:00:00+00:00</time>
        <ele>2478.0</ele>
      </trkpt>
      <trkpt lat="46.327198" lon="9.904391">
        <time>1970-01-01T00:00:00+00:00</time>
        <ele>2476.0</ele>
      </trkpt>
      <trkpt lat="46.32708" lon="9.904375">
        <time>1970-01-01T00:00:00+00:00</time>
        <ele>2473.0</ele>
      </trkpt>
      <trkpt lat="46.326961" lon="9.90444">
        <time>1970-01-01T00:00:00+00:00</time>
        <ele>2470.0</ele>
      </trkpt>
      <trkpt lat="46.326903" lon="9.904512">
        <time>1970-01-01T00:00:00+00:00</time>
        <ele>2468.0</ele>
      </trkpt>
      <trkpt lat="46.326853" lon="9.904663">
        <time>1970-01-01T00:00:00+00:00</time>
        <ele>2466.0</ele>
      </trkpt>
      <trkpt lat="46.326824" lon="9.904817">
        <time>1970-01-01T00:00:00+00:00</time>
        <ele>2465.0</ele>
      </trkpt>
      <trkpt lat="46.326791" lon="9.904867">
        <time>1970-01-01T00:00:00+00:00</time>
        <ele>2464.0</ele>
      </trkpt>
      <trkpt lat="46.326612" lon="9.904965">
        <time>1970-01-01T00:00:00+00:00</time>
        <ele>2461.0</ele>
      </trkpt>
      <trkpt lat="46.326487" lon="9.90498">
        <time>1970-01-01T00:00:00+00:00</time>
        <ele>2460.0</ele>
      </trkpt>
      <trkpt lat="46.326372" lon="9.9049">
        <time>1970-01-01T00:00:00+00:00</time>
        <ele>2460.0</ele>
      </trkpt>
      <trkpt lat="46.326285" lon="9.904868">
        <time>1970-01-01T00:00:00+00:00</time>
        <ele>2459.0</ele>
      </trkpt>
      <trkpt lat="46.326122" lon="9.904969">
        <time>1970-01-01T00:00:00+00:00</time>
        <ele>2458.0</ele>
      </trkpt>
      <trkpt lat="46.326016" lon="9.904958">
        <time>1970-01-01T00:00:00+00:00</time>
        <ele>2456.0</ele>
      </trkpt>
      <trkpt lat="46.325887" lon="9.90498">
        <time>1970-01-01T00:00:00+00:00</time>
        <ele>2453.0</ele>
      </trkpt>
      <trkpt lat="46.325656" lon="9.905067">
        <time>1970-01-01T00:00:00+00:00</time>
        <ele>2448.0</ele>
      </trkpt>
      <trkpt lat="46.325553" lon="9.905022">
        <time>1970-01-01T00:00:00+00:00</time>
        <ele>2444.0</ele>
      </trkpt>
      <trkpt lat="46.325502" lon="9.904938">
        <time>1970-01-01T00:00:00+00:00</time>
        <ele>2441.0</ele>
      </trkpt>
      <trkpt lat="46.325382" lon="9.904621">
        <time>1970-01-01T00:00:00+00:00</time>
        <ele>2436.0</ele>
      </trkpt>
      <trkpt lat="46.325354" lon="9.904625">
        <time>1970-01-01T00:00:00+00:00</time>
        <ele>2435.0</ele>
      </trkpt>
      <trkpt lat="46.325094" lon="9.904965">
        <time>1970-01-01T00:00:00+00:00</time>
        <ele>2425.0</ele>
      </trkpt>
      <trkpt lat="46.324981" lon="9.90505">
        <time>1970-01-01T00:00:00+00:00</time>
        <ele>2421.0</ele>
      </trkpt>
      <trkpt lat="46.324961" lon="9.90499">
        <time>1970-01-01T00:00:00+00:00</time>
        <ele>2420.0</ele>
      </trkpt>
      <trkpt lat="46.324958" lon="9.904738">
        <time>1970-01-01T00:00:00+00:00</time>
        <ele>2418.0</ele>
      </trkpt>
      <trkpt lat="46.324945" lon="9.904645">
        <time>1970-01-01T00:00:00+00:00</time>
        <ele>2417.0</ele>
      </trkpt>
      <trkpt lat="46.324913" lon="9.904635">
        <time>1970-01-01T00:00:00+00:00</time>
        <ele>2416.0</ele>
      </trkpt>
      <trkpt lat="46.324872" lon="9.904694">
        <time>1970-01-01T00:00:00+00:00</time>
        <ele>2414.0</ele>
      </trkpt>
      <trkpt lat="46.32481" lon="9.90474">
        <time>1970-01-01T00:00:00+00:00</time>
        <ele>2412.0</ele>
      </trkpt>
      <trkpt lat="46.324287" lon="9.904822">
        <time>1970-01-01T00:00:00+00:00</time>
        <ele>2398.0</ele>
      </trkpt>
      <trkpt lat="46.324177" lon="9.90486">
        <time>1970-01-01T00:00:00+00:00</time>
        <ele>2396.0</ele>
      </trkpt>
      <trkpt lat="46.323999" lon="9.905175">
        <time>1970-01-01T00:00:00+00:00</time>
        <ele>2389.0</ele>
      </trkpt>
      <trkpt lat="46.323918" lon="9.905397">
        <time>1970-01-01T00:00:00+00:00</time>
        <ele>2383.0</ele>
      </trkpt>
      <trkpt lat="46.323899" lon="9.905573">
        <time>1970-01-01T00:00:00+00:00</time>
        <ele>2381.0</ele>
      </trkpt>
      <trkpt lat="46.323831" lon="9.905859">
        <time>1970-01-01T00:00:00+00:00</time>
        <ele>2375.0</ele>
      </trkpt>
      <trkpt lat="46.323764" lon="9.906337">
        <time>1970-01-01T00:00:00+00:00</time>
        <ele>2371.0</ele>
      </trkpt>
      <trkpt lat="46.32371" lon="9.906481">
        <time>1970-01-01T00:00:00+00:00</time>
        <ele>2371.0</ele>
      </trkpt>
      <trkpt lat="46.323642" lon="9.906616">
        <time>1970-01-01T00:00:00+00:00</time>
        <ele>2371.0</ele>
      </trkpt>
      <trkpt lat="46.323427" lon="9.9069">
        <time>1970-01-01T00:00:00+00:00</time>
        <ele>2366.0</ele>
      </trkpt>
      <trkpt lat="46.323239" lon="9.907192">
        <time>1970-01-01T00:00:00+00:00</time>
        <ele>2359.0</ele>
      </trkpt>
      <trkpt lat="46.323204" lon="9.907284">
        <time>1970-01-01T00:00:00+00:00</time>
        <ele>2359.0</ele>
      </trkpt>
      <trkpt lat="46.323197" lon="9.907367">
        <time>1970-01-01T00:00:00+00:00</time>
        <ele>2360.0</ele>
      </trkpt>
      <trkpt lat="46.32311" lon="9.907358">
        <time>1970-01-01T00:00:00+00:00</time>
        <ele>2359.0</ele>
      </trkpt>
      <trkpt lat="46.32298" lon="9.90739">
        <time>1970-01-01T00:00:00+00:00</time>
        <ele>2358.0</ele>
      </trkpt>
      <trkpt lat="46.322812" lon="9.907348">
        <time>1970-01-01T00:00:00+00:00</time>
        <ele>2357.0</ele>
      </trkpt>
      <trkpt lat="46.322718" lon="9.90741">
        <time>1970-01-01T00:00:00+00:00</time>
        <ele>2358.0</ele>
      </trkpt>
      <trkpt lat="46.322434" lon="9.907351">
        <time>1970-01-01T00:00:00+00:00</time>
        <ele>2351.0</ele>
      </trkpt>
      <trkpt lat="46.32237" lon="9.907376">
        <time>1970-01-01T00:00:00+00:00</time>
        <ele>2349.0</ele>
      </trkpt>
      <trkpt lat="46.322301" lon="9.907476">
        <time>1970-01-01T00:00:00+00:00</time>
        <ele>2346.0</ele>
      </trkpt>
      <trkpt lat="46.322273" lon="9.907562">
        <time>1970-01-01T00:00:00+00:00</time>
        <ele>2345.0</ele>
      </trkpt>
      <trkpt lat="46.322279" lon="9.907663">
        <time>1970-01-01T00:00:00+00:00</time>
        <ele>2346.0</ele>
      </trkpt>
      <trkpt lat="46.322259" lon="9.907766">
        <time>1970-01-01T00:00:00+00:00</time>
        <ele>2346.0</ele>
      </trkpt>
      <trkpt lat="46.322225" lon="9.907801">
        <time>1970-01-01T00:00:00+00:00</time>
        <ele>2346.0</ele>
      </trkpt>
      <trkpt lat="46.322195" lon="9.907747">
        <time>1970-01-01T00:00:00+00:00</time>
        <ele>2343.0</ele>
      </trkpt>
      <trkpt lat="46.322056" lon="9.907336">
        <time>1970-01-01T00:00:00+00:00</time>
        <ele>2335.0</ele>
      </trkpt>
      <trkpt lat="46.322012" lon="9.907325">
        <time>1970-01-01T00:00:00+00:00</time>
        <ele>2333.0</ele>
      </trkpt>
      <trkpt lat="46.321991" lon="9.907531">
        <time>1970-01-01T00:00:00+00:00</time>
        <ele>2335.0</ele>
      </trkpt>
      <trkpt lat="46.321974" lon="9.907574">
        <time>1970-01-01T00:00:00+00:00</time>
        <ele>2335.0</ele>
      </trkpt>
      <trkpt lat="46.32194" lon="9.907584">
        <time>1970-01-01T00:00:00+00:00</time>
        <ele>2334.0</ele>
      </trkpt>
      <trkpt lat="46.32178" lon="9.907283">
        <time>1970-01-01T00:00:00+00:00</time>
        <ele>2324.0</ele>
      </trkpt>
      <trkpt lat="46.321736" lon="9.907311">
        <time>1970-01-01T00:00:00+00:00</time>
        <ele>2323.0</ele>
      </trkpt>
      <trkpt lat="46.32169" lon="9.907472">
        <time>1970-01-01T00:00:00+00:00</time>
        <ele>2326.0</ele>
      </trkpt>
      <trkpt lat="46.321625" lon="9.907521">
        <time>1970-01-01T00:00:00+00:00</time>
        <ele>2326.0</ele>
      </trkpt>
      <trkpt lat="46.321554" lon="9.907528">
        <time>1970-01-01T00:00:00+00:00</time>
        <ele>2324.0</ele>
      </trkpt>
      <trkpt lat="46.321439" lon="9.907467">
        <time>1970-01-01T00:00:00+00:00</time>
        <ele>2318.0</ele>
      </trkpt>
      <trkpt lat="46.321286" lon="9.907447">
        <time>1970-01-01T00:00:00+00:00</time>
        <ele>2311.0</ele>
      </trkpt>
      <trkpt lat="46.321193" lon="9.907377">
        <time>1970-01-01T00:00:00+00:00</time>
        <ele>2306.0</ele>
      </trkpt>
      <trkpt lat="46.321112" lon="9.907365">
        <time>1970-01-01T00:00:00+00:00</time>
        <ele>2302.0</ele>
      </trkpt>
      <trkpt lat="46.320867" lon="9.907197">
        <time>1970-01-01T00:00:00+00:00</time>
        <ele>2291.0</ele>
      </trkpt>
      <trkpt lat="46.320683" lon="9.906923">
        <time>1970-01-01T00:00:00+00:00</time>
        <ele>2284.0</ele>
      </trkpt>
      <trkpt lat="46.320584" lon="9.906823">
        <time>1970-01-01T00:00:00+00:00</time>
        <ele>2278.0</ele>
      </trkpt>
      <trkpt lat="46.320512" lon="9.906835">
        <time>1970-01-01T00:00:00+00:00</time>
        <ele>2274.0</ele>
      </trkpt>
      <trkpt lat="46.320478" lon="9.906883">
        <time>1970-01-01T00:00:00+00:00</time>
        <ele>2273.0</ele>
      </trkpt>
      <trkpt lat="46.320461" lon="9.90695">
        <time>1970-01-01T00:00:00+00:00</time>
        <ele>2272.0</ele>
      </trkpt>
      <trkpt lat="46.320478" lon="9.907043">
        <time>1970-01-01T00:00:00+00:00</time>
        <ele>2272.0</ele>
      </trkpt>
      <trkpt lat="46.320534" lon="9.907162">
        <time>1970-01-01T00:00:00+00:00</time>
        <ele>2275.0</ele>
      </trkpt>
      <trkpt lat="46.320524" lon="9.907198">
        <time>1970-01-01T00:00:00+00:00</time>
        <ele>2274.0</ele>
      </trkpt>
      <trkpt lat="46.320352" lon="9.907181">
        <time>1970-01-01T00:00:00+00:00</time>
        <ele>2264.0</ele>
      </trkpt>
      <trkpt lat="46.320258" lon="9.907089">
        <time>1970-01-01T00:00:00+00:00</time>
        <ele>2258.0</ele>
      </trkpt>
      <trkpt lat="46.320218" lon="9.907012">
        <time>1970-01-01T00:00:00+00:00</time>
        <ele>2256.0</ele>
      </trkpt>
      <trkpt lat="46.320162" lon="9.906755">
        <time>1970-01-01T00:00:00+00:00</time>
        <ele>2254.0</ele>
      </trkpt>
      <trkpt lat="46.320143" lon="9.906536">
        <time>1970-01-01T00:00:00+00:00</time>
        <ele>2255.0</ele>
      </trkpt>
      <trkpt lat="46.320121" lon="9.906489">
        <time>1970-01-01T00:00:00+00:00</time>
        <ele>2254.0</ele>
      </trkpt>
      <trkpt lat="46.319869" lon="9.906456">
        <time>1970-01-01T00:00:00+00:00</time>
        <ele>2249.0</ele>
      </trkpt>
      <trkpt lat="46.319708" lon="9.90639">
        <time>1970-01-01T00:00:00+00:00</time>
        <ele>2244.0</ele>
      </trkpt>
      <trkpt lat="46.319613" lon="9.906269">
        <time>1970-01-01T00:00:00+00:00</time>
        <ele>2238.0</ele>
      </trkpt>
      <trkpt lat="46.319582" lon="9.906272">
        <time>1970-01-01T00:00:00+00:00</time>
        <ele>2237.0</ele>
      </trkpt>
      <trkpt lat="46.319553" lon="9.906316">
        <time>1970-01-01T00:00:00+00:00</time>
        <ele>2236.0</ele>
      </trkpt>
      <trkpt lat="46.319559" lon="9.906533">
        <time>1970-01-01T00:00:00+00:00</time>
        <ele>2234.0</ele>
      </trkpt>
      <trkpt lat="46.31963" lon="9.906723">
        <time>1970-01-01T00:00:00+00:00</time>
        <ele>2234.0</ele>
      </trkpt>
      <trkpt lat="46.31977" lon="9.907047">
        <time>1970-01-01T00:00:00+00:00</time>
        <ele>2234.0</ele>
      </trkpt>
      <trkpt lat="46.319809" lon="9.907169">
        <time>1970-01-01T00:00:00+00:00</time>
        <ele>2234.0</ele>
      </trkpt>
      <trkpt lat="46.319835" lon="9.90733">
        <time>1970-01-01T00:00:00+00:00</time>
        <ele>2234.0</ele>
      </trkpt>
      <trkpt lat="46.319835" lon="9.90752">
        <time>1970-01-01T00:00:00+00:00</time>
        <ele>2232.0</ele>
      </trkpt>
      <trkpt lat="46.319733" lon="9.907966">
        <time>1970-01-01T00:00:00+00:00</time>
        <ele>2228.0</ele>
      </trkpt>
      <trkpt lat="46.319717" lon="9.90797">
        <time>1970-01-01T00:00:00+00:00</time>
        <ele>2227.0</ele>
      </trkpt>
      <trkpt lat="46.319582" lon="9.907604">
        <time>1970-01-01T00:00:00+00:00</time>
        <ele>2221.0</ele>
      </trkpt>
      <trkpt lat="46.319428" lon="9.907841">
        <time>1970-01-01T00:00:00+00:00</time>
        <ele>2218.0</ele>
      </trkpt>
      <trkpt lat="46.318875" lon="9.908193">
        <time>1970-01-01T00:00:00+00:00</time>
        <ele>2213.0</ele>
      </trkpt>
      <trkpt lat="46.318824" lon="9.908242">
        <time>1970-01-01T00:00:00+00:00</time>
        <ele>2213.0</ele>
      </trkpt>
      <trkpt lat="46.318691" lon="9.908248">
        <time>1970-01-01T00:00:00+00:00</time>
        <ele>2210.0</ele>
      </trkpt>
      <trkpt lat="46.318631" lon="9.908277">
        <time>1970-01-01T00:00:00+00:00</time>
        <ele>2209.0</ele>
      </trkpt>
      <trkpt lat="46.318552" lon="9.908348">
        <time>1970-01-01T00:00:00+00:00</time>
        <ele>2208.0</ele>
      </trkpt>
      <trkpt lat="46.318445" lon="9.908362">
        <time>1970-01-01T00:00:00+00:00</time>
        <ele>2205.0</ele>
      </trkpt>
      <trkpt lat="46.318017" lon="9.908596">
        <time>1970-01-01T00:00:00+00:00</time>
        <ele>2198.0</ele>
      </trkpt>
      <trkpt lat="46.317575" lon="9.909047">
        <time>1970-01-01T00:00:00+00:00</time>
        <ele>2193.0</ele>
      </trkpt>
      <trkpt lat="46.316495" lon="9.909556">
        <time>1970-01-01T00:00:00+00:00</time>
        <ele>2188.0</ele>
      </trkpt>
      <trkpt lat="46.315901" lon="9.909933">
        <time>1970-01-01T00:00:00+00:00</time>
        <ele>2184.0</ele>
      </trkpt>
      <trkpt lat="46.315683" lon="9.909999">
        <time>1970-01-01T00:00:00+00:00</time>
        <ele>2184.0</ele>
      </trkpt>
      <trkpt lat="46.315428" lon="9.909979">
        <time>1970-01-01T00:00:00+00:00</time>
        <ele>2182.0</ele>
      </trkpt>
      <trkpt lat="46.314903" lon="9.91019">
        <time>1970-01-01T00:00:00+00:00</time>
        <ele>2188.0</ele>
      </trkpt>
      <trkpt lat="46.314361" lon="9.910337">
        <time>1970-01-01T00:00:00+00:00</time>
        <ele>2192.0</ele>
      </trkpt>
      <trkpt lat="46.313711" lon="9.9104">
        <time>1970-01-01T00:00:00+00:00</time>
        <ele>2191.0</ele>
      </trkpt>
      <trkpt lat="46.313228" lon="9.910679">
        <time>1970-01-01T00:00:00+00:00</time>
        <ele>2193.0</ele>
      </trkpt>
      <trkpt lat="46.312669" lon="9.911115">
        <time>1970-01-01T00:00:00+00:00</time>
        <ele>2198.0</ele>
      </trkpt>
      <trkpt lat="46.311912" lon="9.911449">
        <time>1970-01-01T00:00:00+00:00</time>
        <ele>2197.0</ele>
      </trkpt>
      <trkpt lat="46.311198" lon="9.91155">
        <time>1970-01-01T00:00:00+00:00</time>
        <ele>2188.0</ele>
      </trkpt>
      <trkpt lat="46.31068" lon="9.911775">
        <time>1970-01-01T00:00:00+00:00</time>
        <ele>2187.0</ele>
      </trkpt>
      <trkpt lat="46.31045" lon="9.911778">
        <time>1970-01-01T00:00:00+00:00</time>
        <ele>2185.0</ele>
      </trkpt>
      <trkpt lat="46.310268" lon="9.911703">
        <time>1970-01-01T00:00:00+00:00</time>
        <ele>2183.0</ele>
      </trkpt>
      <trkpt lat="46.309716" lon="9.91162">
        <time>1970-01-01T00:00:00+00:00</time>
        <ele>2180.0</ele>
      </trkpt>
      <trkpt lat="46.309453" lon="9.911814">
        <time>1970-01-01T00:00:00+00:00</time>
        <ele>2181.0</ele>
      </trkpt>
      <trkpt lat="46.308884" lon="9.912405">
        <time>1970-01-01T00:00:00+00:00</time>
        <ele>2174.0</ele>
      </trkpt>
      <trkpt lat="46.308095" lon="9.913035">
        <time>1970-01-01T00:00:00+00:00</time>
        <ele>2167.0</ele>
      </trkpt>
      <trkpt lat="46.307375" lon="9.913897">
        <time>1970-01-01T00:00:00+00:00</time>
        <ele>2167.0</ele>
      </trkpt>
      <trkpt lat="46.307198" lon="9.913998">
        <time>1970-01-01T00:00:00+00:00</time>
        <ele>2163.0</ele>
      </trkpt>
      <trkpt lat="46.306736" lon="9.914799">
        <time>1970-01-01T00:00:00+00:00</time>
        <ele>2166.0</ele>
      </trkpt>
      <trkpt lat="46.30636" lon="9.914885">
        <time>1970-01-01T00:00:00+00:00</time>
        <ele>2153.0</ele>
      </trkpt>
      <trkpt lat="46.305653" lon="9.915621">
        <time>1970-01-01T00:00:00+00:00</time>
        <ele>2138.0</ele>
      </trkpt>
      <trkpt lat="46.305478" lon="9.916143">
        <time>1970-01-01T00:00:00+00:00</time>
        <ele>2115.0</ele>
      </trkpt>
      <trkpt lat="46.305687" lon="9.916846">
        <time>1970-01-01T00:00:00+00:00</time>
        <ele>2097.0</ele>
      </trkpt>
      <trkpt lat="46.305945" lon="9.917283">
        <time>1970-01-01T00:00:00+00:00</time>
        <ele>2109.0</ele>
      </trkpt>
      <trkpt lat="46.306121" lon="9.917872">
        <time>1970-01-01T00:00:00+00:00</time>
        <ele>2097.0</ele>
      </trkpt>
      <trkpt lat="46.306382" lon="9.919263">
        <time>1970-01-01T00:00:00+00:00</time>
        <ele>2043.0</ele>
      </trkpt>
      <trkpt lat="46.306716" lon="9.920623">
        <time>1970-01-01T00:00:00+00:00</time>
        <ele>2017.0</ele>
      </trkpt>
      <trkpt lat="46.306798" lon="9.921342">
        <time>1970-01-01T00:00:00+00:00</time>
        <ele>1994.0</ele>
      </trkpt>
      <trkpt lat="46.306783" lon="9.922072">
        <time>1970-01-01T00:00:00+00:00</time>
        <ele>1961.0</ele>
      </trkpt>
      <trkpt lat="46.306921" lon="9.922524">
        <time>1970-01-01T00:00:00+00:00</time>
        <ele>1959.0</ele>
      </trkpt>
      <trkpt lat="46.30705" lon="9.922694">
        <time>1970-01-01T00:00:00+00:00</time>
        <ele>1966.0</ele>
      </trkpt>
      <trkpt lat="46.307097" lon="9.922827">
        <time>1970-01-01T00:00:00+00:00</time>
        <ele>1969.0</ele>
      </trkpt>
      <trkpt lat="46.307125" lon="9.92329">
        <time>1970-01-01T00:00:00+00:00</time>
        <ele>1958.0</ele>
      </trkpt>
      <trkpt lat="46.30711" lon="9.923567">
        <time>1970-01-01T00:00:00+00:00</time>
        <ele>1953.0</ele>
      </trkpt>
      <trkpt lat="46.307042" lon="9.923991">
        <time>1970-01-01T00:00:00+00:00</time>
        <ele>1946.0</ele>
      </trkpt>
      <trkpt lat="46.307034" lon="9.924282">
        <time>1970-01-01T00:00:00+00:00</time>
        <ele>1946.0</ele>
      </trkpt>
      <trkpt lat="46.306948" lon="9.924664">
        <time>1970-01-01T00:00:00+00:00</time>
        <ele>1943.0</ele>
      </trkpt>
      <trkpt lat="46.306889" lon="9.924777">
        <time>1970-01-01T00:00:00+00:00</time>
        <ele>1941.0</ele>
      </trkpt>
      <trkpt lat="46.306831" lon="9.92462">
        <time>1970-01-01T00:00:00+00:00</time>
        <ele>1940.0</ele>
      </trkpt>
      <trkpt lat="46.306778" lon="9.924208">
        <time>1970-01-01T00:00:00+00:00</time>
        <ele>1938.0</ele>
      </trkpt>
      <trkpt lat="46.306686" lon="9.923852">
        <time>1970-01-01T00:00:00+00:00</time>
        <ele>1935.0</ele>
      </trkpt>
      <trkpt lat="46.306613" lon="9.923752">
        <time>1970-01-01T00:00:00+00:00</time>
        <ele>1934.0</ele>
      </trkpt>
      <trkpt lat="46.306622" lon="9.923975">
        <time>1970-01-01T00:00:00+00:00</time>
        <ele>1936.0</ele>
      </trkpt>
    </trkseg>
  </trk>
</gpx>
